| time (UTC) | temp F | wind direction | speed MPH | gust MPH | rain 1hr in | rain 24hr in | rain mn in | humidity % | barometer mb |
| 20260903003628 | 68 | 0.0 | 0.0 | 0.00 | 0.06 | 0.06 | 93 | 1021.2 | |
| 20260903003523 | 68 | 0.0 | 0.0 | 0.00 | 0.06 | 0.06 | 93 | 1021.0 | |
| 20260903003419 | 68 | 0.0 | 0.0 | 0.00 | 0.06 | 0.06 | 93 | 1021.1 | |
| 20260903003330 | 68 | 0.0 | 0.0 | 0.00 | 0.06 | 0.06 | 92 | 1021.0 | |
| 20260903003246 | 68 | 0.0 | 0.0 | 0.00 | 0.06 | 0.06 | 92 | 1021.1 | |
| 20260903003121 | 68 | 0.0 | 0.0 | 0.00 | 0.06 | 0.06 | 92 | 1021.1 | |
| 20260903003056 | 68 | 0.0 | 0.0 | 0.00 | 0.06 | 0.06 | 92 | 1021.2 | |
| 20260903002928 | 68 | 0.0 | 0.0 | 0.00 | 0.06 | 0.06 | 92 | 1021.0 | |
| 20260903002824 | 68 | 0.0 | 0.0 | 0.00 | 0.06 | 0.06 | 92 | 1021.0 | |
| 20260903002719 | 68 | 0.0 | 0.0 | 0.00 | 0.06 | 0.06 | 92 | 1021.0 | |
| 20260903002631 | 68 | 0.0 | 0.0 | 0.00 | 0.06 | 0.06 | 92 | 1021.1 | |
| 20260903002526 | 68 | 0.0 | 0.0 | 0.00 | 0.06 | 0.06 | 92 | 1021.0 | |
| 20260903002422 | 68 | 0.0 | 0.0 | 0.00 | 0.06 | 0.06 | 92 | 1021.1 | |
| 20260903002317 | 68 | 101 | 0.0 | 1.0 | 0.00 | 0.06 | 0.06 | 92 | 1021.0 |
| 20260903002228 | 68 | 99 | 1.0 | 2.0 | 0.00 | 0.06 | 0.06 | 92 | 1021.0 |
| 20260903002123 | 68 | 0.0 | 0.0 | 0.00 | 0.06 | 0.06 | 92 | 1020.9 | |
| 20260903002018 | 68 | 88 | 0.0 | 1.0 | 0.00 | 0.06 | 0.06 | 92 | 1021.0 |
| 20260903001930 | 68 | 82 | 3.0 | 6.0 | 0.00 | 0.06 | 0.06 | 92 | 1021.1 |
| 20260903001826 | 68 | 75 | 0.0 | 1.0 | 0.00 | 0.06 | 0.06 | 92 | 1020.8 |
| 20260903001721 | 69 | 73 | 1.0 | 1.0 | 0.00 | 0.06 | 0.06 | 92 | 1020.7 |
| 20260903001616 | 69 | 73 | 1.0 | 1.0 | 0.00 | 0.06 | 0.06 | 92 | 1020.9 |
| 20260903001548 | 69 | 73 | 1.0 | 1.0 | 0.00 | 0.06 | 0.06 | 92 | 1020.7 |
| 20260903001423 | 69 | 73 | 1.0 | 1.0 | 0.00 | 0.06 | 0.06 | 92 | 1020.6 |
| 20260903001338 | 69 | 73 | 0.0 | 1.0 | 0.00 | 0.06 | 0.06 | 92 | 1020.6 |
| 20260903001230 | 69 | 0.0 | 0.0 | 0.00 | 0.06 | 0.06 | 92 | 1020.9 | |
| 20260903001125 | 69 | 73 | 1.0 | 2.0 | 0.00 | 0.06 | 0.06 | 91 | 1020.9 |
| 20260903001021 | 69 | 84 | 1.0 | 2.0 | 0.00 | 0.06 | 0.06 | 91 | 1020.8 |
| 20260903000936 | 69 | 77 | 0.0 | 1.0 | 0.00 | 0.06 | 0.06 | 91 | 1020.8 |
| 20260903000827 | 69 | 78 | 1.0 | 1.0 | 0.00 | 0.06 | 0.06 | 92 | 1020.7 |
| 20260903000722 | 69 | 78 | 1.0 | 1.0 | 0.00 | 0.06 | 0.06 | 92 | 1020.7 |
| 20260903000617 | 69 | 78 | 0.0 | 1.0 | 0.00 | 0.06 | 0.06 | 91 | 1020.7 |
| 20260903000528 | 69 | 79 | 2.0 | 3.0 | 0.00 | 0.06 | 0.06 | 91 | 1020.6 |
| 20260903000424 | 69 | 87 | 2.0 | 3.0 | 0.00 | 0.06 | 0.06 | 91 | 1020.6 |
| 20260903000319 | 69 | 114 | 0.0 | 1.0 | 0.00 | 0.06 | 0.06 | 91 | 1020.8 |
| 20260903000233 | 69 | 114 | 1.0 | 3.0 | 0.00 | 0.06 | 0.06 | 91 | 1020.7 |
| 20260903000125 | 69 | 104 | 1.0 | 1.0 | 0.00 | 0.06 | 0.06 | 91 | 1020.6 |
| 20260903000020 | 69 | 95 | 2.0 | 3.0 | 0.00 | 0.06 | 0.06 | 91 | 1020.6 |
| 20260902235916 | 69 | 86 | 2.0 | 4.0 | 0.00 | 0.06 | 0.06 | 91 | 1020.4 |
| 20260902235827 | 69 | 103 | 1.0 | 3.0 | 0.00 | 0.06 | 0.06 | 91 | 1020.6 |
| 20260902235723 | 69 | 92 | 3.0 | 4.0 | 0.00 | 0.06 | 0.06 | 91 | 1020.4 |
| 20260902235617 | 69 | 95 | 0.0 | 1.0 | 0.00 | 0.06 | 0.06 | 91 | 1020.4 |
| 20260902235529 | 69 | 95 | 1.0 | 2.0 | 0.00 | 0.06 | 0.06 | 91 | 1020.6 |
| 20260902235424 | 69 | 94 | 1.0 | 3.0 | 0.00 | 0.06 | 0.06 | 91 | 1020.5 |
| 20260902235320 | 69 | 87 | 3.0 | 3.0 | 0.00 | 0.06 | 0.06 | 91 | 1020.5 |
| 20260902235231 | 69 | 76 | 1.0 | 3.0 | 0.00 | 0.06 | 0.06 | 91 | 1020.7 |
| 20260902235126 | 69 | 86 | 1.0 | 1.0 | 0.00 | 0.06 | 0.06 | 91 | 1020.3 |
| 20260902235101 | 69 | 0.0 | 0.0 | 0.00 | 0.06 | 0.06 | 91 | 1020.3 | |
| 20260902234917 | 69 | 88 | 0.0 | 1.0 | 0.00 | 0.06 | 0.06 | 91 | 1020.6 |
| 20260902234828 | 69 | 0.0 | 0.0 | 0.00 | 0.07 | 0.06 | 91 | 1020.6 | |
| 20260902234724 | 69 | 0.0 | 0.0 | 0.00 | 0.07 | 0.06 | 91 | 1020.6 | |
| 20260902234640 | 69 | 86 | 1.0 | 2.0 | 0.00 | 0.08 | 0.06 | 90 | 1020.6 |
| 20260902234551 | 69 | 85 | 1.0 | 2.0 | 0.00 | 0.09 | 0.06 | 91 | 1020.5 |
| 20260902234426 | 69 | 88 | 0.0 | 1.0 | 0.00 | 0.10 | 0.06 | 91 | 1020.5 |
| 20260902234322 | 69 | 88 | 1.0 | 1.0 | 0.00 | 0.11 | 0.06 | 91 | 1020.4 |
| 20260902234217 | 69 | 89 | 1.0 | 2.0 | 0.00 | 0.12 | 0.06 | 90 | 1020.6 |
| 20260902234129 | 69 | 0.0 | 0.0 | 0.00 | 0.13 | 0.06 | 90 | 1020.6 | |
| 20260902234025 | 69 | 119 | 0.0 | 1.0 | 0.00 | 0.13 | 0.06 | 90 | 1020.6 |
| 20260902233940 | 69 | 119 | 1.0 | 3.0 | 0.00 | 0.13 | 0.06 | 91 | 1020.6 |
| 20260902233831 | 69 | 93 | 1.0 | 2.0 | 0.00 | 0.15 | 0.06 | 91 | 1020.5 |
| 20260902233726 | 69 | 90 | 1.0 | 2.0 | 0.00 | 0.18 | 0.06 | 91 | 1020.4 |
| 20260902233622 | 69 | 134 | 0.0 | 1.0 | 0.00 | 0.20 | 0.06 | 91 | 1020.4 |
| 20260902233517 | 69 | 0.0 | 0.0 | 0.00 | 0.27 | 0.06 | 90 | 1020.3 | |
| 20260902233428 | 69 | 0.0 | 0.0 | 0.00 | 0.29 | 0.06 | 91 | 1020.5 | |
| 20260902233323 | 69 | 137 | 1.0 | 2.0 | 0.00 | 0.29 | 0.06 | 91 | 1020.4 |
| 20260902233238 | 69 | 132 | 2.0 | 3.0 | 0.00 | 0.30 | 0.06 | 91 | 1020.3 |
| 20260902233129 | 69 | 71 | 1.0 | 3.0 | 0.00 | 0.31 | 0.06 | 91 | 1020.4 |
| 20260902233105 | 69 | 61 | 1.0 | 2.0 | 0.00 | 0.32 | 0.06 | 90 | 1020.5 |
| 20260902232940 | 69 | 77 | 1.0 | 1.0 | 0.00 | 0.33 | 0.06 | 90 | 1020.5 |
| 20260902232816 | 69 | 77 | 1.0 | 2.0 | 0.00 | 0.35 | 0.06 | 90 | 1020.4 |
| 20260902232727 | 69 | 78 | 4.0 | 6.0 | 0.00 | 0.35 | 0.06 | 90 | 1020.3 |
| 20260902232622 | 69 | 111 | 2.0 | 7.0 | 0.00 | 0.37 | 0.06 | 90 | 1020.2 |
| 20260902232518 | 69 | 136 | 1.0 | 1.0 | 0.00 | 0.38 | 0.06 | 90 | 1020.2 |
| 20260902232429 | 69 | 136 | 0.0 | 1.0 | 0.00 | 0.39 | 0.06 | 90 | 1020.4 |
| 20260902232325 | 69 | 0.0 | 0.0 | 0.00 | 0.40 | 0.06 | 90 | 1020.4 | |
| 20260902232220 | 69 | 136 | 1.0 | 1.0 | 0.00 | 0.44 | 0.06 | 90 | 1020.2 |
| 20260902232136 | 69 | 136 | 1.0 | 2.0 | 0.00 | 0.44 | 0.06 | 90 | 1020.3 |
| 20260902232027 | 69 | 119 | 3.0 | 4.0 | 0.00 | 0.46 | 0.06 | 90 | 1020.1 |
| 20260902231922 | 69 | 108 | 3.0 | 4.0 | 0.00 | 0.48 | 0.06 | 90 | 1020.1 |
| 20260902231817 | 69 | 104 | 3.0 | 4.0 | 0.00 | 0.52 | 0.06 | 90 | 1020.1 |
| 20260902231729 | 69 | 115 | 2.0 | 3.0 | 0.00 | 0.54 | 0.06 | 90 | 1020.2 |
| 20260902231625 | 69 | 80 | 1.0 | 3.0 | 0.00 | 0.56 | 0.06 | 90 | 1020.2 |
| 20260902231531 | 69 | 124 | 0.0 | 1.0 | 0.00 | 0.61 | 0.06 | 90 | 1020.2 |
| 20260902231326 | 69 | 0.0 | 0.0 | 0.00 | 0.69 | 0.06 | 89 | 1020.1 | |
| 20260902231221 | 69 | 119 | 1.0 | 2.0 | 0.00 | 0.77 | 0.06 | 89 | 1020.2 |
| 20260902231117 | 69 | 104 | 3.0 | 4.0 | 0.00 | 0.84 | 0.06 | 89 | 1020.3 |
| 20260902231028 | 69 | 94 | 1.0 | 2.0 | 0.00 | 0.88 | 0.06 | 89 | 1020.1 |
| 20260902230924 | 69 | 0.0 | 0.0 | 0.00 | 0.88 | 0.06 | 89 | 1020.3 | |
| 20260902230819 | 69 | 91 | 0.0 | 1.0 | 0.00 | 0.88 | 0.06 | 89 | 1020.4 |
| 20260902230731 | 69 | 85 | 2.0 | 3.0 | 0.00 | 0.88 | 0.06 | 89 | 1020.2 |
| 20260902230626 | 69 | 100 | 2.0 | 3.0 | 0.00 | 0.88 | 0.06 | 89 | 1020.3 |
| 20260902230521 | 69 | 112 | 3.0 | 4.0 | 0.00 | 0.88 | 0.06 | 89 | 1020.3 |
| 20260902230457 | 69 | 119 | 2.0 | 3.0 | 0.00 | 0.88 | 0.06 | 89 | 1020.3 |
| 20260902230329 | 69 | 71 | 3.0 | 8.0 | 0.00 | 0.88 | 0.06 | 89 | 1020.2 |
| 20260902230244 | 69 | 106 | 2.0 | 3.0 | 0.00 | 0.88 | 0.06 | 90 | 1020.3 |
| 20260902230119 | 69 | 78 | 1.0 | 3.0 | 0.00 | 0.88 | 0.06 | 90 | 1020.4 |
| 20260902230051 | 69 | 137 | 1.0 | 2.0 | 0.00 | 0.88 | 0.06 | 90 | 1020.4 |
| 20260902225926 | 69 | 153 | 2.0 | 3.0 | 0.00 | 0.88 | 0.06 | 90 | 1020.4 |
| 20260902225841 | 69 | 137 | 1.0 | 4.0 | 0.00 | 0.88 | 0.06 | 90 | 1020.3 |
| 20260902225716 | 69 | 0.0 | 0.0 | 0.00 | 0.88 | 0.06 | 90 | 1020.3 | |
| 20260902225647 | 69 | 139 | 0.0 | 1.0 | 0.00 | 0.88 | 0.06 | 90 | 1020.2 |
| 20260902225522 | 69 | 139 | 2.0 | 3.0 | 0.00 | 0.88 | 0.06 | 89 | 1020.1 |
| 20260902225417 | 69 | 84 | 4.0 | 8.0 | 0.00 | 0.88 | 0.06 | 89 | 1020.3 |
| 20260902225328 | 69 | 152 | 1.0 | 3.0 | 0.00 | 0.88 | 0.06 | 89 | 1020.3 |
| 20260902225306 | 69 | 102 | 3.0 | 4.0 | 0.00 | 0.88 | 0.06 | 89 | 1020.3 |
| 20260902225119 | 69 | 115 | 2.0 | 3.0 | 0.00 | 0.88 | 0.06 | 89 | 1020.6 |
| 20260902225030 | 69 | 81 | 2.0 | 3.0 | 0.00 | 0.88 | 0.06 | 89 | 1020.6 |
| 20260902224946 | 69 | 115 | 1.0 | 1.0 | 0.00 | 0.88 | 0.06 | 89 | 1020.6 |
| 20260902224822 | 69 | 115 | 1.0 | 3.0 | 0.00 | 0.88 | 0.06 | 89 | 1020.6 |
| 20260902224717 | 69 | 97 | 2.0 | 2.0 | 0.00 | 0.88 | 0.06 | 89 | 1020.6 |
| 20260902224628 | 69 | 75 | 0.0 | 1.0 | 0.00 | 0.88 | 0.06 | 89 | 1020.7 |
| 20260902224523 | 69 | 75 | 1.0 | 1.0 | 0.00 | 0.88 | 0.06 | 88 | 1020.7 |
| 20260902224459 | 69 | 75 | 1.0 | 1.0 | 0.00 | 0.88 | 0.06 | 88 | 1020.7 |
| 20260902224330 | 69 | 91 | 2.0 | 3.0 | 0.00 | 0.88 | 0.06 | 88 | 1020.7 |
| 20260902224226 | 70 | 99 | 2.0 | 3.0 | 0.00 | 0.88 | 0.06 | 88 | 1020.7 |
| 20260902224121 | 70 | 99 | 2.0 | 3.0 | 0.00 | 0.88 | 0.06 | 88 | 1020.7 |
| 20260902224016 | 70 | 104 | 2.0 | 4.0 | 0.00 | 0.88 | 0.06 | 88 | 1020.7 |
| 20260902223927 | 70 | 91 | 3.0 | 8.0 | 0.00 | 0.88 | 0.06 | 88 | 1020.7 |
| 20260902223823 | 70 | 82 | 3.0 | 7.0 | 0.00 | 0.88 | 0.06 | 88 | 1020.7 |
| 20260902223718 | 70 | 124 | 1.0 | 2.0 | 0.00 | 0.88 | 0.06 | 87 | 1020.9 |
| 20260902223629 | 70 | 123 | 2.0 | 2.0 | 0.00 | 0.88 | 0.06 | 89 | 1020.9 |
| 20260902223524 | 70 | 92 | 2.0 | 4.0 | 0.00 | 0.88 | 0.06 | 88 | 1021.0 |
| 20260902223419 | 70 | 107 | 1.0 | 2.0 | 0.00 | 0.88 | 0.06 | 88 | 1020.9 |
| 20260902223331 | 70 | 117 | 2.0 | 3.0 | 0.00 | 0.88 | 0.06 | 88 | 1020.9 |
| 20260902223226 | 70 | 100 | 2.0 | 4.0 | 0.00 | 0.88 | 0.06 | 88 | 1020.9 |
| 20260902223120 | 70 | 108 | 1.0 | 1.0 | 0.00 | 0.88 | 0.06 | 88 | 1021.0 |
| 20260902223036 | 70 | 111 | 1.0 | 2.0 | 0.00 | 0.88 | 0.06 | 89 | 1020.9 |
| 20260902222947 | 70 | 112 | 1.0 | 1.0 | 0.00 | 0.88 | 0.06 | 88 | 1020.8 |
| 20260902222842 | 70 | 105 | 2.0 | 4.0 | 0.00 | 0.88 | 0.06 | 88 | 1020.8 |
| 20260902222718 | 70 | 91 | 3.0 | 6.0 | 0.00 | 0.88 | 0.06 | 88 | 1020.8 |
| 20260902222629 | 70 | 92 | 1.0 | 1.0 | 0.00 | 0.88 | 0.06 | 87 | 1020.6 |
| 20260902222525 | 70 | 94 | 1.0 | 2.0 | 0.00 | 0.88 | 0.06 | 87 | 1020.8 |
| 20260902222420 | 70 | 98 | 1.0 | 2.0 | 0.00 | 0.88 | 0.06 | 87 | 1020.8 |
| 20260902222335 | 70 | 87 | 2.0 | 2.0 | 0.00 | 0.88 | 0.06 | 87 | 1020.9 |
| 20260902222227 | 70 | 97 | 2.0 | 4.0 | 0.00 | 0.88 | 0.06 | 87 | 1020.8 |
| 20260902222123 | 70 | 109 | 3.0 | 4.0 | 0.00 | 0.88 | 0.06 | 87 | 1020.9 |
| 20260902222017 | 70 | 100 | 2.0 | 4.0 | 0.00 | 0.88 | 0.06 | 88 | 1021.0 |
| 20260902221929 | 70 | 81 | 3.0 | 6.0 | 0.00 | 0.88 | 0.06 | 88 | 1020.9 |
| 20260902221824 | 70 | 87 | 2.0 | 4.0 | 0.00 | 0.88 | 0.06 | 88 | 1021.0 |
| 20260902221720 | 70 | 100 | 2.0 | 3.0 | 0.00 | 0.88 | 0.06 | 88 | 1021.2 |
| 20260902221616 | 70 | 98 | 1.0 | 1.0 | 0.00 | 0.88 | 0.06 | 88 | 1021.0 |
| 20260902221527 | 70 | 104 | 2.0 | 3.0 | 0.00 | 0.88 | 0.06 | 89 | 1021.1 |
| 20260902221443 | 70 | 95 | 0.0 | 1.0 | 0.00 | 0.88 | 0.06 | 88 | 1021.1 |
| 20260902221317 | 70 | 99 | 1.0 | 2.0 | 0.00 | 0.88 | 0.06 | 88 | 1021.2 |
| 20260902221229 | 70 | 109 | 1.0 | 1.0 | 0.00 | 0.88 | 0.06 | 88 | 1021.1 |
| 20260902221124 | 70 | 103 | 1.0 | 2.0 | 0.00 | 0.88 | 0.06 | 88 | 1021.1 |
| 20260902221019 | 70 | 102 | 1.0 | 4.0 | 0.00 | 0.88 | 0.06 | 89 | 1021.1 |
| 20260902220950 | 70 | 0.0 | 0.0 | 0.00 | 0.88 | 0.06 | 89 | 1021.2 | |
| 20260902220825 | 70 | 81 | 0.0 | 1.0 | 0.00 | 0.88 | 0.06 | 89 | 1021.0 |
| 20260902220721 | 70 | 82 | 0.0 | 1.0 | 0.00 | 0.88 | 0.06 | 89 | 1021.0 |
| 20260902220616 | 70 | 80 | 2.0 | 4.0 | 0.00 | 0.88 | 0.06 | 88 | 1021.0 |
| 20260902220527 | 70 | 81 | 3.0 | 6.0 | 0.00 | 0.88 | 0.06 | 88 | 1020.9 |
| 20260902220422 | 70 | 87 | 2.0 | 4.0 | 0.00 | 0.88 | 0.06 | 89 | 1021.1 |
| 20260902220337 | 70 | 104 | 2.0 | 4.0 | 0.00 | 0.88 | 0.06 | 90 | 1021.0 |
| 20260902220229 | 70 | 79 | 1.0 | 4.0 | 0.00 | 0.88 | 0.06 | 90 | 1021.1 |
| 20260902220124 | 70 | 97 | 1.0 | 1.0 | 0.00 | 0.88 | 0.06 | 90 | 1021.1 |
| 20260902220019 | 70 | 97 | 0.0 | 1.0 | 0.00 | 0.88 | 0.06 | 90 | 1021.1 |
| 20260902215930 | 70 | 0.0 | 0.0 | 0.00 | 0.88 | 0.06 | 90 | 1021.0 | |
| 20260902215825 | 70 | 97 | 1.0 | 2.0 | 0.00 | 0.88 | 0.06 | 89 | 1020.9 |
| 20260902215721 | 70 | 84 | 2.0 | 3.0 | 0.00 | 0.88 | 0.06 | 89 | 1021.2 |
| 20260902215616 | 70 | 97 | 1.0 | 2.0 | 0.00 | 0.88 | 0.06 | 89 | 1021.3 |
| 20260902215528 | 70 | 99 | 1.0 | 2.0 | 0.00 | 0.88 | 0.06 | 90 | 1020.9 |
| 20260902215423 | 70 | 94 | 1.0 | 2.0 | 0.00 | 0.88 | 0.06 | 90 | 1020.9 |
| 20260902215359 | 70 | 91 | 1.0 | 2.0 | 0.00 | 0.88 | 0.06 | 89 | 1021.1 |
| 20260902215230 | 70 | 91 | 0.0 | 1.0 | 0.00 | 0.88 | 0.06 | 89 | 1021.2 |
| 20260902215126 | 70 | 91 | 1.0 | 1.0 | 0.00 | 0.88 | 0.06 | 89 | 1021.2 |
| 20260902215022 | 70 | 90 | 2.0 | 3.0 | 0.00 | 0.88 | 0.06 | 89 | 1021.2 |
| 20260902214917 | 70 | 81 | 0.0 | 1.0 | 0.00 | 0.88 | 0.06 | 89 | 1021.3 |
| 20260902214829 | 70 | 81 | 1.0 | 2.0 | 0.00 | 0.88 | 0.06 | 89 | 1021.3 |
| 20260902214724 | 70 | 83 | 2.0 | 3.0 | 0.00 | 0.88 | 0.06 | 89 | 1021.2 |
| 20260902214619 | 70 | 73 | 1.0 | 3.0 | 0.00 | 0.88 | 0.06 | 89 | 1021.2 |
| 20260902214550 | 70 | 75 | 1.0 | 2.0 | 0.00 | 0.88 | 0.06 | 89 | 1021.2 |
| 20260902214425 | 70 | 96 | 3.0 | 7.0 | 0.00 | 0.88 | 0.06 | 89 | 1021.3 |
| 20260902214320 | 70 | 87 | 1.0 | 4.0 | 0.00 | 0.88 | 0.06 | 89 | 1021.3 |
| 20260902214231 | 70 | 86 | 1.0 | 2.0 | 0.00 | 0.88 | 0.06 | 89 | 1021.4 |
| 20260902214126 | 70 | 98 | 2.0 | 3.0 | 0.00 | 0.88 | 0.06 | 89 | 1021.5 |
| 20260902214020 | 70 | 82 | 2.0 | 2.0 | 0.00 | 0.88 | 0.06 | 89 | 1021.2 |
| 20260902213916 | 70 | 108 | 2.0 | 3.0 | 0.00 | 0.88 | 0.06 | 89 | 1021.5 |
| 20260902213828 | 70 | 126 | 1.0 | 2.0 | 0.00 | 0.88 | 0.06 | 89 | 1021.3 |
| 20260902213723 | 70 | 0.0 | 0.0 | 0.00 | 0.88 | 0.06 | 89 | 1021.4 | |
| 20260902213617 | 70 | 79 | 3.0 | 6.0 | 0.00 | 0.88 | 0.06 | 89 | 1021.3 |
| 20260902213528 | 70 | 94 | 3.0 | 6.0 | 0.00 | 0.88 | 0.06 | 90 | 1021.2 |
| 20260902213423 | 70 | 86 | 0.0 | 1.0 | 0.00 | 0.88 | 0.06 | 90 | 1021.2 |
| 20260902213318 | 70 | 0.0 | 0.0 | 0.00 | 0.88 | 0.06 | 90 | 1021.5 | |
| 20260902213230 | 70 | 89 | 1.0 | 2.0 | 0.00 | 0.88 | 0.06 | 90 | 1021.2 |
| 20260902213125 | 70 | 73 | 0.0 | 1.0 | 0.00 | 0.88 | 0.06 | 90 | 1021.2 |
| 20260902213021 | 70 | 73 | 1.0 | 1.0 | 0.00 | 0.88 | 0.06 | 90 | 1021.4 |
| 20260902212915 | 70 | 73 | 0.0 | 1.0 | 0.00 | 0.88 | 0.06 | 90 | 1021.2 |
| 20260902212827 | 70 | 73 | 0.0 | 1.0 | 0.00 | 0.88 | 0.06 | 90 | 1021.2 |
| 20260902212723 | 70 | 0.0 | 0.0 | 0.00 | 0.88 | 0.06 | 90 | 1021.3 | |
| 20260902212618 | 70 | 74 | 1.0 | 2.0 | 0.00 | 0.88 | 0.06 | 90 | 1021.3 |
| 20260902212530 | 70 | 72 | 2.0 | 4.0 | 0.00 | 0.88 | 0.06 | 90 | 1021.2 |
| 20260902212425 | 70 | 77 | 0.0 | 2.0 | 0.00 | 0.88 | 0.06 | 90 | 1021.0 |
| 20260902212340 | 70 | 74 | 1.0 | 1.0 | 0.00 | 0.88 | 0.06 | 90 | 1021.3 |
| 20260902212215 | 70 | 74 | 0.0 | 1.0 | 0.00 | 0.88 | 0.06 | 90 | 1021.2 |
| 20260902212127 | 70 | 74 | 1.0 | 1.0 | 0.00 | 0.88 | 0.06 | 90 | 1021.2 |
| 20260902212022 | 70 | 74 | 0.0 | 1.0 | 0.00 | 0.88 | 0.06 | 90 | 1021.3 |
| 20260902211917 | 70 | 74 | 1.0 | 2.0 | 0.00 | 0.88 | 0.06 | 90 | 1021.3 |
| 20260902211829 | 70 | 74 | 0.0 | 1.0 | 0.00 | 0.88 | 0.06 | 90 | 1021.4 |
| 20260902211724 | 70 | 74 | 0.0 | 1.0 | 0.00 | 0.88 | 0.06 | 91 | 1021.3 |
| 20260902211620 | 70 | 74 | 0.0 | 1.0 | 0.00 | 0.88 | 0.06 | 90 | 1021.3 |
| 20260902211535 | 70 | 74 | 0.0 | 1.0 | 0.00 | 0.88 | 0.06 | 91 | 1021.2 |
| 20260902211447 | 70 | 74 | 1.0 | 2.0 | 0.00 | 0.88 | 0.06 | 92 | 1021.2 |
| 20260902211323 | 70 | 73 | 0.0 | 2.0 | 0.00 | 0.88 | 0.06 | 92 | 1021.2 |
| 20260902211238 | 70 | 0.0 | 0.0 | 0.00 | 0.88 | 0.06 | 92 | 1021.4 | |
| 20260902211150 | 70 | 72 | 0.0 | 1.0 | 0.00 | 0.88 | 0.06 | 92 | 1021.0 |
| 20260902211025 | 70 | 73 | 0.0 | 1.0 | 0.00 | 0.88 | 0.06 | 91 | 1021.2 |
| 20260902210921 | 70 | 74 | 0.0 | 1.0 | 0.00 | 0.88 | 0.06 | 91 | 1021.1 |
| 20260902210849 | 70 | 0.0 | 0.0 | 0.00 | 0.88 | 0.06 | 91 | 1021.0 | |
| 20260902210644 | 70 | 0.0 | 0.0 | 0.00 | 0.88 | 0.06 | 91 | 1021.0 | |
| 20260902210519 | 70 | 73 | 0.0 | 1.0 | 0.00 | 0.88 | 0.06 | 91 | 1021.0 |
| 20260902210431 | 70 | 74 | 1.0 | 2.0 | 0.00 | 0.88 | 0.06 | 90 | 1021.0 |
| 20260902210327 | 70 | 73 | 1.0 | 1.0 | 0.00 | 0.88 | 0.06 | 90 | 1021.1 |
| 20260902210222 | 70 | 73 | 1.0 | 1.0 | 0.00 | 0.88 | 0.06 | 90 | 1021.1 |
| 20260902210138 | 70 | 74 | 1.0 | 2.0 | 0.00 | 0.88 | 0.06 | 91 | 1021.2 |
| 20260902210049 | 70 | 74 | 1.0 | 2.0 | 0.00 | 0.88 | 0.06 | 91 | 1021.3 |
| 20260902205925 | 70 | 70 | 3.0 | 3.0 | 0.00 | 0.88 | 0.06 | 91 | 1021.2 |
| 20260902205840 | 70 | 76 | 1.0 | 4.0 | 0.00 | 0.88 | 0.06 | 91 | 1021.2 |
| 20260902205716 | 70 | 90 | 2.0 | 4.0 | 0.00 | 0.88 | 0.06 | 92 | 1021.3 |
| 20260902205628 | 70 | 83 | 1.0 | 4.0 | 0.00 | 0.88 | 0.06 | 92 | 1021.2 |
| 20260902205543 | 70 | 98 | 1.0 | 1.0 | 0.00 | 0.88 | 0.06 | 91 | 1021.1 |
| 20260902205459 | 70 | 98 | 0.0 | 1.0 | 0.00 | 0.88 | 0.06 | 91 | 1021.3 |
| 20260902205330 | 70 | 98 | 0.0 | 1.0 | 0.00 | 0.88 | 0.06 | 91 | 1021.1 |
| 20260902205226 | 70 | 0.0 | 0.0 | 0.00 | 0.88 | 0.06 | 92 | 1021.2 | |
| 20260902205141 | 70 | 98 | 1.0 | 1.0 | 0.00 | 0.88 | 0.06 | 92 | 1021.2 |
| 20260902205016 | 70 | 99 | 1.0 | 2.0 | 0.00 | 0.88 | 0.06 | 92 | 1021.2 |
| 20260902204927 | 70 | 98 | 1.0 | 1.0 | 0.00 | 0.88 | 0.06 | 91 | 1021.0 |
| 20260902204823 | 70 | 97 | 0.0 | 1.0 | 0.00 | 0.88 | 0.06 | 91 | 1020.9 |
| 20260902204819 | 70 | 97 | 0.0 | 1.0 | 0.00 | 0.88 | 0.06 | 91 | 1021.0 |
| 20260902204630 | 70 | 97 | 0.0 | 1.0 | 0.00 | 0.88 | 0.06 | 91 | 1021.0 |
| 20260902204526 | 70 | 97 | 2.0 | 2.0 | 0.00 | 0.88 | 0.06 | 91 | 1020.9 |
| 20260902204421 | 70 | 105 | 1.0 | 3.0 | 0.00 | 0.88 | 0.06 | 92 | 1020.9 |
| 20260902204317 | 70 | 80 | 1.0 | 1.0 | 0.00 | 0.88 | 0.06 | 92 | 1021.2 |
| 20260902204229 | 70 | 79 | 2.0 | 3.0 | 0.00 | 0.88 | 0.06 | 92 | 1021.2 |
| 20260902204124 | 70 | 91 | 2.0 | 3.0 | 0.00 | 0.88 | 0.06 | 92 | 1021.1 |
| 20260902204020 | 69 | 0.0 | 0.0 | 0.00 | 0.88 | 0.06 | 91 | 1021.1 | |
| 20260902203916 | 69 | 84 | 1.0 | 1.0 | 0.00 | 0.88 | 0.06 | 91 | 1021.0 |
| 20260902203827 | 69 | 84 | 1.0 | 1.0 | 0.00 | 0.88 | 0.06 | 91 | 1021.1 |
| 20260902203723 | 69 | 83 | 0.0 | 1.0 | 0.00 | 0.88 | 0.06 | 91 | 1021.1 |
| 20260902203618 | 69 | 83 | 1.0 | 2.0 | 0.00 | 0.88 | 0.06 | 91 | 1020.9 |
| 20260902203530 | 69 | 85 | 1.0 | 1.0 | 0.00 | 0.88 | 0.06 | 91 | 1021.1 |
| 20260902203445 | 69 | 89 | 2.0 | 3.0 | 0.00 | 0.88 | 0.06 | 91 | 1021.1 |
| 20260902203321 | 69 | 80 | 3.0 | 4.0 | 0.00 | 0.88 | 0.06 | 91 | 1021.0 |
| 20260902203216 | 69 | 75 | 2.0 | 6.0 | 0.00 | 0.88 | 0.06 | 91 | 1021.2 |
| 20260902203128 | 69 | 83 | 3.0 | 6.0 | 0.00 | 0.88 | 0.06 | 92 | 1021.2 |
| 20260902203024 | 69 | 78 | 1.0 | 1.0 | 0.00 | 0.88 | 0.06 | 92 | 1021.1 |
| 20260902202919 | 69 | 77 | 2.0 | 2.0 | 0.00 | 0.88 | 0.06 | 91 | 1021.1 |
| 20260902202831 | 69 | 71 | 1.0 | 2.0 | 0.00 | 0.88 | 0.06 | 92 | 1021.0 |
| 20260902202726 | 69 | 78 | 2.0 | 3.0 | 0.00 | 0.88 | 0.06 | 91 | 1021.0 |
| 20260902202622 | 69 | 90 | 2.0 | 4.0 | 0.00 | 0.88 | 0.06 | 91 | 1021.1 |
| 20260902202517 | 69 | 100 | 2.0 | 2.0 | 0.00 | 0.88 | 0.06 | 92 | 1021.1 |
| 20260902202449 | 69 | 106 | 1.0 | 2.0 | 0.00 | 0.88 | 0.06 | 92 | 1021.0 |
| 20260902202325 | 69 | 97 | 2.0 | 4.0 | 0.00 | 0.88 | 0.06 | 91 | 1021.1 |
| 20260902202220 | 69 | 110 | 2.0 | 2.0 | 0.00 | 0.88 | 0.06 | 91 | 1021.1 |
| 20260902202136 | 69 | 108 | 0.0 | 1.0 | 0.00 | 0.88 | 0.06 | 91 | 1021.2 |
| 20260902202028 | 69 | 108 | 0.0 | 1.0 | 0.00 | 0.88 | 0.06 | 92 | 1021.3 |
| 20260902201923 | 69 | 108 | 1.0 | 1.0 | 0.00 | 0.88 | 0.06 | 92 | 1021.3 |
| 20260902201819 | 69 | 108 | 1.0 | 1.0 | 0.00 | 0.88 | 0.06 | 92 | 1021.4 |
| 20260902201730 | 69 | 107 | 2.0 | 2.0 | 0.00 | 0.88 | 0.06 | 91 | 1021.2 |
| 20260902201626 | 69 | 101 | 1.0 | 2.0 | 0.00 | 0.88 | 0.06 | 91 | 1021.1 |
| 20260902201522 | 69 | 100 | 1.0 | 2.0 | 0.00 | 0.88 | 0.06 | 92 | 1021.2 |
| 20260902201417 | 69 | 100 | 1.0 | 1.0 | 0.00 | 0.88 | 0.06 | 92 | 1021.2 |
| 20260902201349 | 69 | 100 | 1.0 | 1.0 | 0.00 | 0.88 | 0.06 | 92 | 1021.2 |
| 20260902201224 | 69 | 100 | 0.0 | 1.0 | 0.00 | 0.88 | 0.06 | 92 | 1021.2 |
| 20260902201120 | 69 | 99 | 1.0 | 1.0 | 0.00 | 0.88 | 0.06 | 92 | 1021.3 |
| 20260902201016 | 69 | 100 | 1.0 | 1.0 | 0.00 | 0.88 | 0.06 | 92 | 1021.2 |
| 20260902200927 | 69 | 101 | 1.0 | 2.0 | 0.00 | 0.88 | 0.06 | 92 | 1021.1 |
| 20260902200822 | 69 | 94 | 1.0 | 2.0 | 0.00 | 0.88 | 0.06 | 92 | 1021.1 |
| 20260902200718 | 69 | 82 | 1.0 | 1.0 | 0.00 | 0.88 | 0.06 | 92 | 1021.2 |
| 20260902200630 | 69 | 81 | 0.0 | 1.0 | 0.00 | 0.88 | 0.06 | 92 | 1021.1 |
| 20260902200525 | 69 | 81 | 1.0 | 1.0 | 0.00 | 0.88 | 0.06 | 92 | 1021.1 |
| 20260902200440 | 69 | 81 | 1.0 | 1.0 | 0.00 | 0.88 | 0.06 | 91 | 1021.3 |
| 20260902200316 | 69 | 82 | 1.0 | 1.0 | 0.01 | 0.88 | 0.06 | 91 | 1021.2 |
| 20260902200228 | 69 | 82 | 1.0 | 2.0 | 0.01 | 0.88 | 0.06 | 91 | 1021.3 |
| 20260902200124 | 69 | 81 | 0.0 | 2.0 | 0.01 | 0.88 | 0.06 | 91 | 1021.2 |
| 20260902200019 | 69 | 81 | 1.0 | 1.0 | 0.01 | 0.88 | 0.06 | 91 | 1021.1 |
| 20260902195931 | 69 | 81 | 1.0 | 1.0 | 0.01 | 0.88 | 0.06 | 91 | 1021.3 |
| 20260902195826 | 69 | 0.0 | 0.0 | 0.01 | 0.88 | 0.06 | 91 | 1021.4 | |
| 20260902195722 | 69 | 0.0 | 0.0 | 0.01 | 0.88 | 0.06 | 91 | 1021.6 | |
| 20260902195618 | 69 | 81 | 0.0 | 1.0 | 0.01 | 0.88 | 0.06 | 91 | 1021.4 |
| 20260902195529 | 69 | 81 | 1.0 | 1.0 | 0.01 | 0.88 | 0.06 | 91 | 1021.5 |
| 20260902195425 | 69 | 81 | 1.0 | 1.0 | 0.01 | 0.88 | 0.06 | 91 | 1021.5 |
| 20260902195320 | 69 | 80 | 1.0 | 2.0 | 0.01 | 0.88 | 0.06 | 91 | 1021.5 |
| 20260902195236 | 69 | 75 | 0.0 | 1.0 | 0.01 | 0.88 | 0.06 | 91 | 1021.5 |
| 20260902195148 | 69 | 75 | 1.0 | 2.0 | 0.01 | 0.88 | 0.06 | 92 | 1021.4 |
| 20260902195023 | 69 | 74 | 1.0 | 1.0 | 0.02 | 0.88 | 0.06 | 91 | 1021.5 |
| 20260902194919 | 69 | 74 | 1.0 | 1.0 | 0.02 | 0.88 | 0.06 | 92 | 1021.5 |
| 20260902194830 | 69 | 74 | 1.0 | 1.0 | 0.02 | 0.88 | 0.06 | 92 | 1021.4 |
| 20260902194821 | 69 | 74 | 0.0 | 1.0 | 0.02 | 0.88 | 0.06 | 92 | 1021.5 |
| 20260902194517 | 70 | 0.0 | 0.0 | 0.03 | 0.88 | 0.06 | 91 | 1021.4 | |
| 20260902194429 | 70 | 74 | 0.0 | 1.0 | 0.03 | 0.88 | 0.06 | 91 | 1021.3 |
| 20260902194324 | 70 | 74 | 0.0 | 1.0 | 0.03 | 0.88 | 0.06 | 91 | 1021.4 |
| 20260902194220 | 70 | 74 | 1.0 | 1.0 | 0.03 | 0.88 | 0.06 | 91 | 1021.5 |
| 20260902194131 | 70 | 74 | 1.0 | 1.0 | 0.04 | 0.88 | 0.06 | 90 | 1021.4 |
| 20260902194046 | 70 | 74 | 1.0 | 2.0 | 0.04 | 0.88 | 0.06 | 89 | 1021.6 |
| 20260902193922 | 70 | 73 | 1.0 | 2.0 | 0.04 | 0.88 | 0.06 | 89 | 1021.7 |
| 20260902193817 | 70 | 73 | 0.0 | 1.0 | 0.04 | 0.88 | 0.06 | 90 | 1021.5 |
| 20260902193729 | 70 | 73 | 0.0 | 1.0 | 0.04 | 0.88 | 0.06 | 90 | 1021.7 |
| 20260902193624 | 70 | 73 | 0.0 | 1.0 | 0.04 | 0.88 | 0.06 | 90 | 1021.5 |
| 20260902193520 | 70 | 0.0 | 0.0 | 0.04 | 0.88 | 0.06 | 90 | 1021.6 | |
| 20260902193416 | 70 | 0.0 | 0.0 | 0.04 | 0.88 | 0.06 | 90 | 1021.6 | |
| 20260902193327 | 70 | 0.0 | 0.0 | 0.04 | 0.88 | 0.06 | 90 | 1021.6 | |
| 20260902193223 | 70 | 0.0 | 0.0 | 0.04 | 0.88 | 0.06 | 90 | 1021.7 | |
| 20260902193118 | 70 | 0.0 | 0.0 | 0.04 | 0.88 | 0.06 | 90 | 1021.9 | |
| 20260902193030 | 70 | 0.0 | 0.0 | 0.04 | 0.88 | 0.06 | 90 | 1021.8 | |
| 20260902192946 | 70 | 0.0 | 0.0 | 0.04 | 0.88 | 0.06 | 90 | 1021.9 | |
| 20260902192821 | 70 | 73 | 0.0 | 1.0 | 0.04 | 0.88 | 0.06 | 89 | 1021.9 |
| 20260902192717 | 70 | 0.0 | 0.0 | 0.04 | 0.88 | 0.06 | 90 | 1021.8 | |
| 20260902192628 | 70 | 0.0 | 0.0 | 0.04 | 0.88 | 0.06 | 90 | 1021.6 | |
| 20260902192524 | 70 | 0.0 | 0.0 | 0.04 | 0.88 | 0.06 | 90 | 1021.7 | |
| 20260902192419 | 70 | 0.0 | 0.0 | 0.04 | 0.88 | 0.06 | 90 | 1021.7 | |
| 20260902192351 | 70 | 0.0 | 0.0 | 0.04 | 0.88 | 0.06 | 90 | 1021.8 | |
| 20260902192226 | 70 | 0.0 | 0.0 | 0.04 | 0.88 | 0.06 | 90 | 1021.6 | |
| 20260902192122 | 70 | 0.0 | 0.0 | 0.04 | 0.88 | 0.06 | 90 | 1021.6 | |
| 20260902192018 | 70 | 0.0 | 0.0 | 0.04 | 0.88 | 0.06 | 90 | 1021.7 | |
| 20260902191929 | 70 | 0.0 | 0.0 | 0.04 | 0.88 | 0.06 | 89 | 1021.6 | |
| 20260902191825 | 70 | 73 | 0.0 | 1.0 | 0.04 | 0.88 | 0.06 | 89 | 1021.6 |
| 20260902191721 | 70 | 73 | 0.0 | 1.0 | 0.04 | 0.88 | 0.06 | 90 | 1021.6 |
| 20260902191616 | 71 | 73 | 0.0 | 1.0 | 0.04 | 0.88 | 0.06 | 89 | 1021.7 |
| 20260902191528 | 71 | 73 | 0.0 | 1.0 | 0.04 | 0.88 | 0.06 | 89 | 1021.5 |
| 20260902191424 | 71 | 73 | 1.0 | 3.0 | 0.04 | 0.88 | 0.06 | 89 | 1021.6 |
| 20260902191319 | 71 | 83 | 1.0 | 1.0 | 0.04 | 0.88 | 0.06 | 89 | 1021.7 |
| 20260902191231 | 71 | 0.0 | 0.0 | 0.04 | 0.88 | 0.06 | 89 | 1021.7 | |
| 20260902191126 | 71 | 82 | 0.0 | 1.0 | 0.04 | 0.88 | 0.06 | 89 | 1021.6 |
| 20260902191022 | 71 | 82 | 0.0 | 1.0 | 0.04 | 0.88 | 0.06 | 89 | 1021.5 |
| 20260902190918 | 71 | 0.0 | 0.0 | 0.04 | 0.88 | 0.06 | 89 | 1021.5 | |
| 20260902190829 | 71 | 83 | 1.0 | 2.0 | 0.04 | 0.88 | 0.06 | 90 | 1021.6 |
| 20260902190725 | 71 | 83 | 0.0 | 1.0 | 0.04 | 0.88 | 0.06 | 90 | 1021.6 |
| 20260902190620 | 71 | 86 | 0.0 | 1.0 | 0.04 | 0.88 | 0.06 | 90 | 1021.7 |
| 20260902190516 | 71 | 87 | 0.0 | 1.0 | 0.04 | 0.88 | 0.05 | 90 | 1021.6 |
| 20260902190427 | 71 | 87 | 0.0 | 1.0 | 0.04 | 0.88 | 0.05 | 90 | 1021.7 |
| 20260902190323 | 70 | 0.0 | 0.0 | 0.03 | 0.87 | 0.05 | 90 | 1021.6 | |
| 20260902190239 | 70 | 0.0 | 0.0 | 0.03 | 0.87 | 0.05 | 90 | 1021.5 | |
| 20260902190130 | 70 | 86 | 1.0 | 2.0 | 0.03 | 0.87 | 0.05 | 89 | 1021.4 |
| 20260902190026 | 70 | 90 | 1.0 | 2.0 | 0.03 | 0.87 | 0.05 | 89 | 1021.2 |
| 20260902185921 | 70 | 127 | 1.0 | 2.0 | 0.03 | 0.87 | 0.05 | 90 | 1021.3 |
| 20260902185817 | 70 | 127 | 2.0 | 3.0 | 0.03 | 0.87 | 0.05 | 89 | 1021.3 |
| 20260902185729 | 70 | 115 | 1.0 | 3.0 | 0.03 | 0.87 | 0.05 | 89 | 1021.2 |
| 20260902185624 | 70 | 89 | 1.0 | 2.0 | 0.03 | 0.87 | 0.05 | 90 | 1021.2 |
| 20260902185520 | 70 | 88 | 2.0 | 2.0 | 0.03 | 0.87 | 0.05 | 89 | 1021.4 |
| 20260902185415 | 70 | 81 | 2.0 | 2.0 | 0.03 | 0.87 | 0.05 | 89 | 1021.4 |
| 20260902185327 | 70 | 62 | 2.0 | 3.0 | 0.03 | 0.87 | 0.04 | 89 | 1021.5 |
| 20260902185222 | 70 | 84 | 2.0 | 2.0 | 0.03 | 0.87 | 0.04 | 89 | 1021.6 |
| 20260902185118 | 70 | 100 | 1.0 | 2.0 | 0.03 | 0.87 | 0.04 | 89 | 1021.6 |
| 20260902185030 | 70 | 0.0 | 0.0 | 0.02 | 0.87 | 0.04 | 89 | 1021.7 | |
| 20260902184925 | 70 | 100 | 0.0 | 1.0 | 0.02 | 0.86 | 0.03 | 88 | 1021.7 |
| 20260902184841 | 70 | 100 | 0.0 | 1.0 | 0.02 | 0.86 | 0.03 | 88 | 1021.7 |
| 20260902184736 | 70 | 100 | 1.0 | 1.0 | 0.02 | 0.86 | 0.03 | 88 | 1021.5 |
| 20260902184628 | 70 | 100 | 1.0 | 1.0 | 0.02 | 0.86 | 0.03 | 89 | 1021.5 |
| 20260902184524 | 70 | 100 | 1.0 | 1.0 | 0.01 | 0.85 | 0.03 | 88 | 1021.7 |
| 20260902184420 | 70 | 100 | 0.0 | 1.0 | 0.01 | 0.85 | 0.02 | 88 | 1021.6 |
| 20260902184331 | 70 | 100 | 1.0 | 2.0 | 0.01 | 0.85 | 0.02 | 87 | 1021.6 |
| 20260902184226 | 70 | 100 | 0.0 | 1.0 | 0.01 | 0.85 | 0.02 | 88 | 1021.8 |
| 20260902184122 | 70 | 0.0 | 0.0 | 0.00 | 0.85 | 0.02 | 87 | 1021.7 | |
| 20260902184017 | 70 | 0.0 | 0.0 | 0.00 | 0.85 | 0.02 | 87 | 1021.7 | |
| 20260902183929 | 70 | 0.0 | 0.0 | 0.00 | 0.85 | 0.02 | 87 | 1021.7 | |
| 20260902183824 | 70 | 100 | 1.0 | 1.0 | 0.00 | 0.85 | 0.02 | 86 | 1021.6 |
| 20260902183720 | 70 | 100 | 1.0 | 1.0 | 0.00 | 0.85 | 0.02 | 85 | 1021.8 |
| 20260902183615 | 70 | 101 | 1.0 | 1.0 | 0.00 | 0.85 | 0.02 | 86 | 1021.8 |
| 20260902183607 | 70 | 100 | 1.0 | 2.0 | 0.00 | 0.84 | 0.02 | 86 | 1021.7 |
| 20260902183421 | 70 | 89 | 2.0 | 3.0 | 0.00 | 0.84 | 0.02 | 86 | 1021.7 |
| 20260902183357 | 70 | 118 | 1.0 | 2.0 | 0.00 | 0.84 | 0.02 | 85 | 1021.7 |
| 20260902183229 | 70 | 120 | 1.0 | 1.0 | 0.00 | 0.84 | 0.02 | 86 | 1021.8 |
| 20260902183124 | 70 | 119 | 0.0 | 1.0 | 0.00 | 0.84 | 0.02 | 86 | 1021.8 |
| 20260902183019 | 70 | 0.0 | 0.0 | 0.00 | 0.84 | 0.02 | 86 | 1021.8 | |
| 20260902182931 | 70 | 0.0 | 0.0 | 0.00 | 0.84 | 0.02 | 86 | 1021.8 | |
| 20260902182826 | 70 | 0.0 | 0.0 | 0.00 | 0.84 | 0.02 | 85 | 1021.8 | |
| 20260902182722 | 70 | 119 | 1.0 | 1.0 | 0.00 | 0.84 | 0.02 | 84 | 1021.8 |
| 20260902182617 | 70 | 118 | 1.0 | 2.0 | 0.00 | 0.84 | 0.02 | 85 | 1021.7 |
| 20260902182529 | 70 | 110 | 2.0 | 2.0 | 0.00 | 0.84 | 0.02 | 85 | 1021.9 |
| 20260902182424 | 70 | 112 | 1.0 | 2.0 | 0.00 | 0.84 | 0.02 | 86 | 1021.7 |
| 20260902182319 | 70 | 0.0 | 0.0 | 0.00 | 0.84 | 0.02 | 85 | 1021.7 | |
| 20260902182231 | 70 | 112 | 1.0 | 2.0 | 0.00 | 0.84 | 0.02 | 85 | 1021.7 |
| 20260902182126 | 70 | 110 | 1.0 | 2.0 | 0.00 | 0.84 | 0.02 | 85 | 1021.6 |
| 20260902182022 | 70 | 100 | 2.0 | 3.0 | 0.00 | 0.84 | 0.02 | 85 | 1021.6 |
| 20260902181917 | 70 | 116 | 2.0 | 4.0 | 0.00 | 0.84 | 0.02 | 84 | 1021.7 |
| 20260902181829 | 70 | 105 | 3.0 | 6.0 | 0.00 | 0.84 | 0.02 | 85 | 1021.5 |
| 20260902181725 | 70 | 142 | 2.0 | 3.0 | 0.00 | 0.84 | 0.02 | 85 | 1021.6 |
| 20260902181620 | 70 | 144 | 0.0 | 1.0 | 0.00 | 0.84 | 0.02 | 85 | 1021.6 |
| 20260902181515 | 70 | 93 | 2.0 | 3.0 | 0.00 | 0.84 | 0.02 | 85 | 1021.6 |
| 20260902181447 | 70 | 95 | 4.0 | 7.0 | 0.00 | 0.84 | 0.02 | 85 | 1021.5 |
| 20260902181321 | 70 | 85 | 2.0 | 3.0 | 0.00 | 0.84 | 0.02 | 84 | 1021.8 |
| 20260902181216 | 70 | 85 | 2.0 | 4.0 | 0.00 | 0.84 | 0.02 | 84 | 1021.6 |
| 20260902181148 | 70 | 82 | 3.0 | 4.0 | 0.00 | 0.84 | 0.02 | 84 | 1021.6 |
| 20260902181024 | 70 | 102 | 4.0 | 6.0 | 0.00 | 0.84 | 0.02 | 85 | 1021.6 |
| 20260902180939 | 70 | 69 | 3.0 | 4.0 | 0.00 | 0.84 | 0.02 | 85 | 1021.6 |
| 20260902180851 | 70 | 70 | 3.0 | 4.0 | 0.00 | 0.84 | 0.02 | 84 | 1021.8 |
| 20260902180726 | 70 | 83 | 0.0 | 2.0 | 0.00 | 0.84 | 0.02 | 85 | 1021.6 |
| 20260902180622 | 70 | 95 | 0.0 | 1.0 | 0.00 | 0.84 | 0.02 | 85 | 1021.6 |
| 20260902180517 | 70 | 95 | 1.0 | 2.0 | 0.00 | 0.84 | 0.02 | 85 | 1021.3 |
| 20260902180428 | 70 | 87 | 2.0 | 3.0 | 0.00 | 0.84 | 0.02 | 84 | 1021.5 |
| 20260902180323 | 70 | 119 | 2.0 | 6.0 | 0.00 | 0.84 | 0.02 | 85 | 1021.8 |
| 20260902180219 | 70 | 82 | 2.0 | 3.0 | 0.00 | 0.84 | 0.02 | 85 | 1022.0 |
| 20260902180130 | 70 | 81 | 1.0 | 3.0 | 0.00 | 0.84 | 0.02 | 85 | 1021.8 |
| 20260902180025 | 70 | 78 | 2.0 | 2.0 | 0.00 | 0.84 | 0.02 | 85 | 1021.9 |
| 20260902175921 | 70 | 75 | 1.0 | 2.0 | 0.00 | 0.84 | 0.02 | 85 | 1022.0 |
| 20260902175817 | 70 | 73 | 2.0 | 2.0 | 0.00 | 0.84 | 0.02 | 85 | 1022.1 |
| 20260902175728 | 70 | 72 | 1.0 | 2.0 | 0.00 | 0.84 | 0.02 | 85 | 1021.9 |
| 20260902175624 | 70 | 72 | 0.0 | 1.0 | 0.00 | 0.84 | 0.02 | 84 | 1022.1 |
| 20260902175519 | 70 | 71 | 1.0 | 1.0 | 0.00 | 0.84 | 0.02 | 84 | 1021.9 |
| 20260902175430 | 70 | 71 | 1.0 | 1.0 | 0.00 | 0.84 | 0.02 | 84 | 1022.1 |
| 20260902175325 | 70 | 71 | 2.0 | 3.0 | 0.00 | 0.84 | 0.02 | 84 | 1022.1 |
| 20260902175220 | 70 | 95 | 1.0 | 1.0 | 0.00 | 0.84 | 0.02 | 84 | 1022.1 |
| 20260902175131 | 70 | 96 | 1.0 | 2.0 | 0.00 | 0.84 | 0.02 | 83 | 1022.0 |
| 20260902175026 | 70 | 86 | 2.0 | 3.0 | 0.00 | 0.84 | 0.02 | 84 | 1021.9 |
| 20260902174921 | 70 | 85 | 2.0 | 3.0 | 0.00 | 0.84 | 0.02 | 83 | 1022.0 |
| 20260902174836 | 70 | 119 | 2.0 | 3.0 | 0.00 | 0.84 | 0.02 | 84 | 1022.1 |
| 20260902174728 | 70 | 113 | 2.0 | 3.0 | 0.00 | 0.84 | 0.02 | 85 | 1021.9 |
| 20260902174624 | 70 | 114 | 2.0 | 2.0 | 0.00 | 0.84 | 0.02 | 85 | 1021.9 |
| 20260902174519 | 70 | 113 | 1.0 | 2.0 | 0.00 | 0.84 | 0.02 | 85 | 1022.1 |
| 20260902174430 | 70 | 110 | 2.0 | 2.0 | 0.00 | 0.84 | 0.02 | 85 | 1021.9 |
| 20260902174326 | 70 | 106 | 0.0 | 1.0 | 0.00 | 0.84 | 0.02 | 85 | 1022.1 |
| 20260902174221 | 70 | 106 | 1.0 | 2.0 | 0.00 | 0.84 | 0.02 | 84 | 1022.0 |
| 20260902174116 | 70 | 107 | 1.0 | 1.0 | 0.00 | 0.84 | 0.02 | 84 | 1022.1 |
| 20260902174047 | 70 | 91 | 2.0 | 3.0 | 0.00 | 0.84 | 0.02 | 84 | 1021.9 |
| 20260902173922 | 70 | 106 | 1.0 | 1.0 | 0.00 | 0.84 | 0.02 | 83 | 1022.1 |
| 20260902173818 | 70 | 105 | 1.0 | 2.0 | 0.00 | 0.84 | 0.02 | 82 | 1022.1 |
| 20260902173730 | 70 | 125 | 1.0 | 2.0 | 0.00 | 0.84 | 0.02 | 85 | 1022.1 |
| 20260902173625 | 70 | 139 | 2.0 | 3.0 | 0.00 | 0.84 | 0.02 | 84 | 1022.0 |
| 20260902173521 | 70 | 96 | 1.0 | 1.0 | 0.00 | 0.84 | 0.02 | 84 | 1022.0 |
| 20260902173416 | 70 | 97 | 0.0 | 1.0 | 0.00 | 0.84 | 0.02 | 83 | 1021.8 |
| 20260902173328 | 70 | 97 | 1.0 | 2.0 | 0.00 | 0.84 | 0.02 | 84 | 1021.8 |
| 20260902173243 | 70 | 85 | 1.0 | 3.0 | 0.00 | 0.84 | 0.02 | 83 | 1021.8 |
| 20260902173139 | 70 | 107 | 2.0 | 3.0 | 0.00 | 0.84 | 0.02 | 84 | 1021.8 |
| 20260902173051 | 70 | 92 | 2.0 | 4.0 | 0.00 | 0.84 | 0.02 | 85 | 1021.9 |
| 20260902172926 | 70 | 65 | 3.0 | 6.0 | 0.00 | 0.84 | 0.02 | 85 | 1021.9 |
| 20260902172822 | 70 | 141 | 2.0 | 2.0 | 0.00 | 0.84 | 0.02 | 84 | 1022.2 |
| 20260902172717 | 70 | 94 | 3.0 | 4.0 | 0.00 | 0.84 | 0.02 | 83 | 1022.0 |
| 20260902172628 | 70 | 83 | 2.0 | 4.0 | 0.00 | 0.84 | 0.02 | 83 | 1022.0 |
| 20260902172524 | 70 | 111 | 1.0 | 3.0 | 0.00 | 0.84 | 0.02 | 83 | 1022.2 |
| 20260902172419 | 70 | 111 | 1.0 | 2.0 | 0.00 | 0.84 | 0.02 | 83 | 1022.3 |
| 20260902172330 | 70 | 112 | 1.0 | 2.0 | 0.00 | 0.84 | 0.02 | 84 | 1022.1 |
| 20260902172226 | 70 | 109 | 1.0 | 3.0 | 0.00 | 0.84 | 0.02 | 85 | 1022.1 |
| 20260902172121 | 70 | 107 | 1.0 | 1.0 | 0.00 | 0.84 | 0.02 | 85 | 1022.2 |
| 20260902172017 | 70 | 107 | 1.0 | 1.0 | 0.00 | 0.84 | 0.02 | 84 | 1022.3 |
| 20260902171929 | 70 | 107 | 1.0 | 1.0 | 0.00 | 0.84 | 0.02 | 84 | 1022.1 |
| 20260902171824 | 70 | 107 | 1.0 | 2.0 | 0.00 | 0.84 | 0.02 | 83 | 1022.1 |
| 20260902171720 | 70 | 107 | 1.0 | 1.0 | 0.00 | 0.84 | 0.02 | 84 | 1022.3 |
| 20260902171650 | 70 | 107 | 1.0 | 2.0 | 0.00 | 0.84 | 0.02 | 84 | 1022.0 |
| 20260902171525 | 70 | 103 | 1.0 | 2.0 | 0.00 | 0.84 | 0.02 | 85 | 1022.3 |
| 20260902171421 | 70 | 102 | 1.0 | 2.0 | 0.00 | 0.84 | 0.02 | 84 | 1022.1 |
| 20260902171337 | 70 | 102 | 1.0 | 2.0 | 0.00 | 0.84 | 0.02 | 85 | 1022.3 |
| 20260902171229 | 70 | 102 | 1.0 | 1.0 | 0.00 | 0.84 | 0.02 | 85 | 1022.2 |
| 20260902171123 | 70 | 102 | 1.0 | 2.0 | 0.00 | 0.84 | 0.02 | 85 | 1022.2 |
| 20260902171019 | 70 | 102 | 1.0 | 2.0 | 0.00 | 0.84 | 0.02 | 85 | 1022.2 |
| 20260902170930 | 70 | 0.0 | 0.0 | 0.00 | 0.84 | 0.02 | 84 | 1022.2 | |
| 20260902170826 | 70 | 0.0 | 0.0 | 0.00 | 0.84 | 0.02 | 83 | 1022.2 | |
| 20260902170721 | 70 | 0.0 | 0.0 | 0.00 | 0.84 | 0.02 | 83 | 1022.2 | |
| 20260902170636 | 70 | 101 | 1.0 | 2.0 | 0.00 | 0.84 | 0.02 | 82 | 1022.3 |
| 20260902170527 | 70 | 101 | 2.0 | 2.0 | 0.00 | 0.84 | 0.02 | 81 | 1022.3 |
| 20260902170423 | 70 | 84 | 2.0 | 6.0 | 0.00 | 0.84 | 0.02 | 81 | 1022.3 |
| 20260902170318 | 70 | 134 | 2.0 | 3.0 | 0.00 | 0.84 | 0.02 | 82 | 1022.5 |
| 20260902170250 | 70 | 105 | 1.0 | 2.0 | 0.00 | 0.84 | 0.02 | 83 | 1022.2 |
| 20260902170125 | 70 | 95 | 3.0 | 4.0 | 0.00 | 0.84 | 0.02 | 82 | 1022.2 |
| 20260902170021 | 70 | 72 | 2.0 | 3.0 | 0.00 | 0.84 | 0.02 | 83 | 1022.2 |
| 20260902165936 | 70 | 80 | 1.0 | 3.0 | 0.00 | 0.84 | 0.02 | 83 | 1022.2 |
| 20260902165828 | 70 | 80 | 0.0 | 2.0 | 0.00 | 0.84 | 0.02 | 82 | 1022.4 |
| 20260902165724 | 70 | 82 | 1.0 | 2.0 | 0.00 | 0.84 | 0.02 | 83 | 1022.2 |
| 20260902165619 | 69 | 305 | 1.0 | 2.0 | 0.00 | 0.84 | 0.02 | 83 | 1022.2 |
| 20260902165530 | 69 | 127 | 1.0 | 2.0 | 0.00 | 0.84 | 0.02 | 84 | 1022.1 |
| 20260902165425 | 70 | 122 | 2.0 | 2.0 | 0.00 | 0.84 | 0.02 | 84 | 1022.2 |
| 20260902165321 | 69 | 121 | 2.0 | 4.0 | 0.00 | 0.84 | 0.02 | 83 | 1022.1 |
| 20260902165236 | 69 | 58 | 2.0 | 6.0 | 0.00 | 0.84 | 0.02 | 82 | 1022.3 |
| 20260902165128 | 70 | 113 | 3.0 | 6.0 | 0.00 | 0.84 | 0.02 | 83 | 1022.2 |
| 20260902165023 | 70 | 117 | 3.0 | 3.0 | 0.00 | 0.84 | 0.02 | 82 | 1022.3 |
| 20260902164919 | 69 | 92 | 2.0 | 2.0 | 0.00 | 0.84 | 0.02 | 82 | 1022.4 |
| 20260902164830 | 69 | 83 | 3.0 | 6.0 | 0.00 | 0.84 | 0.02 | 82 | 1022.2 |
| 20260902164745 | 69 | 94 | 1.0 | 3.0 | 0.00 | 0.84 | 0.02 | 82 | 1022.1 |
| 20260902164641 | 69 | 108 | 2.0 | 4.0 | 0.00 | 0.84 | 0.02 | 83 | 1022.1 |
| 20260902164516 | 69 | 99 | 2.0 | 3.0 | 0.00 | 0.84 | 0.02 | 83 | 1022.2 |
| 20260902164427 | 69 | 101 | 3.0 | 6.0 | 0.00 | 0.84 | 0.02 | 83 | 1022.2 |
| 20260902164323 | 69 | 85 | 1.0 | 2.0 | 0.00 | 0.84 | 0.02 | 83 | 1022.2 |
| 20260902164238 | 69 | 82 | 1.0 | 3.0 | 0.00 | 0.84 | 0.02 | 84 | 1022.2 |
| 20260902164130 | 69 | 112 | 1.0 | 1.0 | 0.00 | 0.84 | 0.02 | 84 | 1022.3 |
| 20260902164025 | 69 | 105 | 2.0 | 4.0 | 0.00 | 0.84 | 0.02 | 84 | 1022.2 |
| 20260902163941 | 69 | 74 | 1.0 | 3.0 | 0.00 | 0.84 | 0.02 | 84 | 1022.4 |
| 20260902163816 | 69 | 93 | 2.0 | 3.0 | 0.00 | 0.84 | 0.02 | 84 | 1022.5 |
| 20260902163726 | 69 | 78 | 1.0 | 1.0 | 0.00 | 0.84 | 0.02 | 84 | 1022.5 |
| 20260902163622 | 69 | 78 | 0.0 | 1.0 | 0.00 | 0.84 | 0.02 | 85 | 1022.4 |
| 20260902163517 | 69 | 78 | 2.0 | 3.0 | 0.00 | 0.84 | 0.02 | 85 | 1022.6 |
| 20260902163429 | 69 | 77 | 3.0 | 4.0 | 0.00 | 0.84 | 0.02 | 86 | 1022.4 |
| 20260902163325 | 69 | 98 | 1.0 | 3.0 | 0.00 | 0.84 | 0.02 | 86 | 1022.6 |
| 20260902163220 | 69 | 105 | 1.0 | 2.0 | 0.00 | 0.84 | 0.02 | 85 | 1022.6 |
| 20260902163115 | 69 | 96 | 1.0 | 2.0 | 0.00 | 0.84 | 0.02 | 84 | 1022.6 |
| 20260902163027 | 69 | 85 | 2.0 | 3.0 | 0.00 | 0.84 | 0.02 | 84 | 1022.4 |
| 20260902162923 | 69 | 83 | 3.0 | 4.0 | 0.00 | 0.84 | 0.02 | 85 | 1022.6 |
| 20260902162818 | 69 | 94 | 1.0 | 2.0 | 0.00 | 0.84 | 0.02 | 84 | 1022.6 |
| 20260902162730 | 69 | 98 | 2.0 | 3.0 | 0.00 | 0.84 | 0.02 | 85 | 1022.6 |
| 20260902162625 | 69 | 85 | 2.0 | 3.0 | 0.00 | 0.84 | 0.02 | 88 | 1022.6 |
| 20260902162521 | 69 | 101 | 1.0 | 2.0 | 0.00 | 0.84 | 0.02 | 89 | 1022.5 |
| 20260902162417 | 69 | 101 | 1.0 | 1.0 | 0.00 | 0.84 | 0.02 | 89 | 1022.4 |
| 20260902162328 | 69 | 0.0 | 0.0 | 0.00 | 0.84 | 0.02 | 89 | 1022.5 | |
| 20260902162224 | 69 | 101 | 0.0 | 1.0 | 0.00 | 0.84 | 0.02 | 89 | 1022.6 |
| 20260902162120 | 69 | 0.0 | 0.0 | 0.00 | 0.84 | 0.02 | 88 | 1022.6 | |
| 20260902162031 | 69 | 0.0 | 0.0 | 0.00 | 0.84 | 0.02 | 87 | 1022.6 | |
| 20260902161926 | 69 | 0.0 | 0.0 | 0.00 | 0.84 | 0.02 | 86 | 1022.6 | |
| 20260902161821 | 69 | 101 | 0.0 | 1.0 | 0.00 | 0.84 | 0.02 | 87 | 1022.4 |
| 20260902161717 | 69 | 100 | 1.0 | 2.0 | 0.00 | 0.84 | 0.02 | 87 | 1022.5 |
| 20260902161628 | 69 | 92 | 1.0 | 2.0 | 0.00 | 0.84 | 0.02 | 88 | 1022.7 |
| 20260902161524 | 69 | 91 | 0.0 | 2.0 | 0.00 | 0.84 | 0.02 | 88 | 1022.4 |
| 20260902161420 | 69 | 92 | 1.0 | 2.0 | 0.00 | 0.84 | 0.02 | 87 | 1022.4 |
| 20260902161351 | 69 | 96 | 1.0 | 2.0 | 0.00 | 0.84 | 0.02 | 87 | 1022.6 |
| 20260902161226 | 69 | 105 | 1.0 | 2.0 | 0.00 | 0.84 | 0.02 | 87 | 1022.6 |
| 20260902161122 | 69 | 108 | 2.0 | 2.0 | 0.00 | 0.84 | 0.02 | 86 | 1022.4 |
| 20260902161017 | 69 | 113 | 1.0 | 3.0 | 0.00 | 0.84 | 0.02 | 86 | 1022.5 |
| 20260902160928 | 69 | 116 | 2.0 | 4.0 | 0.00 | 0.84 | 0.02 | 86 | 1022.4 |
| 20260902160823 | 69 | 77 | 3.0 | 4.0 | 0.00 | 0.84 | 0.02 | 87 | 1022.4 |
| 20260902160719 | 69 | 67 | 2.0 | 3.0 | 0.00 | 0.84 | 0.02 | 87 | 1022.4 |
| 20260902160630 | 69 | 74 | 0.0 | 1.0 | 0.00 | 0.84 | 0.02 | 86 | 1022.6 |
| 20260902160526 | 69 | 73 | 1.0 | 2.0 | 0.00 | 0.84 | 0.02 | 84 | 1022.4 |
| 20260902160421 | 69 | 106 | 2.0 | 2.0 | 0.00 | 0.84 | 0.02 | 85 | 1022.4 |
| 20260902160336 | 69 | 101 | 2.0 | 3.0 | 0.00 | 0.84 | 0.02 | 85 | 1022.5 |
| 20260902160247 | 69 | 119 | 1.0 | 2.0 | 0.00 | 0.84 | 0.02 | 87 | 1022.4 |
| 20260902160122 | 69 | 133 | 2.0 | 2.0 | 0.00 | 0.85 | 0.02 | 86 | 1022.3 |
| 20260902160018 | 69 | 108 | 3.0 | 4.0 | 0.00 | 0.85 | 0.02 | 87 | 1022.4 |
| 20260902155929 | 69 | 90 | 2.0 | 4.0 | 0.00 | 0.85 | 0.02 | 87 | 1022.3 |
| 20260902155845 | 69 | 100 | 1.0 | 2.0 | 0.00 | 0.85 | 0.02 | 88 | 1022.3 |
| 20260902155720 | 69 | 88 | 1.0 | 2.0 | 0.00 | 0.85 | 0.02 | 87 | 1022.4 |
| 20260902155615 | 69 | 86 | 1.0 | 1.0 | 0.00 | 0.85 | 0.02 | 87 | 1022.4 |
| 20260902155527 | 69 | 89 | 2.0 | 3.0 | 0.00 | 0.85 | 0.02 | 87 | 1022.4 |
| 20260902155422 | 69 | 90 | 4.0 | 7.0 | 0.00 | 0.85 | 0.02 | 88 | 1022.4 |
| 20260902155317 | 69 | 105 | 2.0 | 3.0 | 0.00 | 0.85 | 0.02 | 88 | 1022.5 |
| 20260902155228 | 69 | 126 | 1.0 | 1.0 | 0.00 | 0.85 | 0.02 | 88 | 1022.3 |
| 20260902155123 | 69 | 126 | 1.0 | 2.0 | 0.00 | 0.86 | 0.02 | 86 | 1022.2 |
| 20260902155019 | 69 | 125 | 1.0 | 1.0 | 0.00 | 0.86 | 0.02 | 85 | 1022.5 |
| 20260902154931 | 69 | 111 | 2.0 | 3.0 | 0.00 | 0.86 | 0.02 | 85 | 1022.5 |
| 20260902154826 | 69 | 103 | 2.0 | 3.0 | 0.00 | 0.86 | 0.02 | 87 | 1022.5 |
| 20260902154721 | 69 | 92 | 2.0 | 3.0 | 0.00 | 0.86 | 0.02 | 89 | 1022.5 |
| 20260902154637 | 69 | 83 | 0.0 | 1.0 | 0.00 | 0.86 | 0.02 | 90 | 1022.4 |
| 20260902154528 | 69 | 0.0 | 0.0 | 0.00 | 0.86 | 0.02 | 90 | 1022.2 | |
| 20260902154424 | 69 | 0.0 | 0.0 | 0.00 | 0.86 | 0.02 | 90 | 1022.3 | |
| 20260902154320 | 69 | 0.0 | 0.0 | 0.00 | 0.86 | 0.02 | 90 | 1022.3 | |
| 20260902154231 | 69 | 0.0 | 0.0 | 0.00 | 0.86 | 0.02 | 90 | 1022.4 | |
| 20260902154126 | 69 | 0.0 | 0.0 | 0.00 | 0.86 | 0.02 | 89 | 1022.5 | |
| 20260902154022 | 69 | 0.0 | 0.0 | 0.00 | 0.86 | 0.02 | 89 | 1022.3 | |
| 20260902153917 | 69 | 83 | 0.0 | 1.0 | 0.00 | 0.86 | 0.02 | 88 | 1022.5 |
| 20260902153829 | 69 | 83 | 1.0 | 1.0 | 0.00 | 0.87 | 0.02 | 88 | 1022.3 |
| 20260902153724 | 69 | 83 | 1.0 | 2.0 | 0.00 | 0.87 | 0.02 | 87 | 1022.3 |
| 20260902153639 | 69 | 83 | 0.0 | 1.0 | 0.00 | 0.87 | 0.02 | 87 | 1022.6 |
| 20260902153531 | 69 | 90 | 2.0 | 3.0 | 0.00 | 0.87 | 0.02 | 88 | 1022.5 |
| 20260902153426 | 69 | 98 | 0.0 | 1.0 | 0.00 | 0.87 | 0.02 | 89 | 1022.4 |
| 20260902153322 | 69 | 0.0 | 0.0 | 0.00 | 0.87 | 0.02 | 89 | 1022.6 | |
| 20260902153217 | 69 | 0.0 | 0.0 | 0.00 | 0.87 | 0.02 | 89 | 1022.5 | |
| 20260902153128 | 69 | 0.0 | 0.0 | 0.00 | 0.87 | 0.02 | 88 | 1022.5 | |
| 20260902153024 | 69 | 99 | 0.0 | 1.0 | 0.00 | 0.87 | 0.02 | 88 | 1022.3 |
| 20260902152918 | 69 | 99 | 1.0 | 2.0 | 0.00 | 0.87 | 0.02 | 89 | 1022.6 |
| 20260902152850 | 69 | 93 | 1.0 | 1.0 | 0.00 | 0.87 | 0.02 | 89 | 1022.6 |
| 20260902152725 | 69 | 93 | 1.0 | 2.0 | 0.00 | 0.87 | 0.02 | 89 | 1022.5 |
| 20260902152621 | 69 | 102 | 1.0 | 2.0 | 0.00 | 0.87 | 0.02 | 88 | 1022.5 |
| 20260902152517 | 69 | 102 | 2.0 | 3.0 | 0.00 | 0.87 | 0.02 | 88 | 1022.5 |
| 20260902152428 | 69 | 102 | 2.0 | 3.0 | 0.00 | 0.87 | 0.02 | 89 | 1022.5 |
| 20260902152323 | 69 | 93 | 2.0 | 3.0 | 0.00 | 0.87 | 0.02 | 89 | 1022.5 |
| 20260902152218 | 69 | 93 | 0.0 | 1.0 | 0.00 | 0.87 | 0.02 | 90 | 1022.5 |
| 20260902152130 | 69 | 0.0 | 0.0 | 0.00 | 0.87 | 0.02 | 90 | 1022.4 | |
| 20260902152025 | 69 | 93 | 0.0 | 1.0 | 0.00 | 0.87 | 0.02 | 90 | 1022.4 |
| 20260902151940 | 69 | 92 | 1.0 | 2.0 | 0.00 | 0.87 | 0.02 | 90 | 1022.5 |
| 20260902151816 | 69 | 91 | 0.0 | 1.0 | 0.00 | 0.87 | 0.02 | 89 | 1022.5 |
| 20260902151727 | 69 | 0.0 | 0.0 | 0.00 | 0.87 | 0.02 | 89 | 1022.4 | |
| 20260902151623 | 69 | 0.0 | 0.0 | 0.00 | 0.87 | 0.02 | 90 | 1022.4 | |
| 20260902151518 | 69 | 0.0 | 0.0 | 0.00 | 0.87 | 0.02 | 89 | 1022.7 | |
| 20260902151429 | 69 | 0.0 | 0.0 | 0.00 | 0.87 | 0.02 | 90 | 1022.5 | |
| 20260902151325 | 69 | 0.0 | 0.0 | 0.00 | 0.87 | 0.02 | 89 | 1022.6 | |
| 20260902151220 | 69 | 0.0 | 0.0 | 0.00 | 0.87 | 0.02 | 88 | 1022.6 | |
| 20260902151115 | 69 | 91 | 0.0 | 1.0 | 0.00 | 0.87 | 0.02 | 88 | 1022.7 |
| 20260902151027 | 69 | 91 | 1.0 | 2.0 | 0.00 | 0.87 | 0.02 | 89 | 1022.6 |
| 20260902150923 | 69 | 98 | 1.0 | 1.0 | 0.00 | 0.87 | 0.02 | 88 | 1022.6 |
| 20260902150818 | 69 | 99 | 0.0 | 1.0 | 0.00 | 0.87 | 0.02 | 89 | 1022.8 |
| 20260902150729 | 69 | 99 | 1.0 | 3.0 | 0.00 | 0.87 | 0.02 | 89 | 1022.5 |
| 20260902150625 | 69 | 71 | 0.0 | 1.0 | 0.00 | 0.87 | 0.02 | 90 | 1022.4 |
| 20260902150520 | 69 | 0.0 | 0.0 | 0.00 | 0.87 | 0.02 | 90 | 1022.5 | |
| 20260902150431 | 69 | 0.0 | 0.0 | 0.00 | 0.87 | 0.02 | 90 | 1022.7 | |
| 20260902150326 | 69 | 71 | 0.0 | 1.0 | 0.00 | 0.87 | 0.02 | 90 | 1022.5 |
| 20260902150222 | 69 | 0.0 | 0.0 | 0.00 | 0.87 | 0.02 | 90 | 1022.5 | |
| 20260902150117 | 69 | 0.0 | 0.0 | 0.00 | 0.87 | 0.02 | 89 | 1022.5 | |
| 20260902150028 | 69 | 71 | 1.0 | 1.0 | 0.00 | 0.87 | 0.02 | 88 | 1022.5 |
| 20260902145924 | 69 | 79 | 2.0 | 4.0 | 0.00 | 0.87 | 0.02 | 87 | 1022.3 |
| 20260902145819 | 69 | 119 | 1.0 | 2.0 | 0.00 | 0.87 | 0.02 | 87 | 1022.2 |
| 20260902145715 | 69 | 97 | 2.0 | 3.0 | 0.00 | 0.87 | 0.02 | 89 | 1022.4 |
| 20260902145626 | 69 | 148 | 2.0 | 2.0 | 0.00 | 0.87 | 0.02 | 89 | 1022.3 |
| 20260902145521 | 69 | 126 | 3.0 | 3.0 | 0.00 | 0.87 | 0.02 | 88 | 1022.2 |
| 20260902145417 | 69 | 94 | 3.0 | 6.0 | 0.00 | 0.87 | 0.02 | 87 | 1022.3 |
| 20260902145328 | 69 | 99 | 2.0 | 4.0 | 0.00 | 0.87 | 0.02 | 89 | 1022.1 |
| 20260902145224 | 69 | 96 | 3.0 | 6.0 | 0.00 | 0.87 | 0.02 | 89 | 1022.2 |
| 20260902145211 | 69 | 60 | 3.0 | 4.0 | 0.00 | 0.87 | 0.02 | 90 | 1022.2 |
| 20260902144926 | 69 | 75 | 2.0 | 3.0 | 0.00 | 0.87 | 0.02 | 89 | 1022.2 |
| 20260902144822 | 69 | 100 | 3.0 | 7.0 | 0.00 | 0.87 | 0.02 | 89 | 1022.2 |
| 20260902144717 | 69 | 92 | 2.0 | 6.0 | 0.00 | 0.87 | 0.02 | 90 | 1022.2 |
| 20260902144629 | 69 | 104 | 2.0 | 3.0 | 0.00 | 0.87 | 0.02 | 91 | 1022.1 |
| 20260902144544 | 69 | 89 | 1.0 | 3.0 | 0.00 | 0.87 | 0.02 | 91 | 1022.1 |
| 20260902144420 | 69 | 112 | 2.0 | 3.0 | 0.00 | 0.87 | 0.02 | 91 | 1022.2 |
| 20260902144315 | 69 | 117 | 1.0 | 1.0 | 0.00 | 0.87 | 0.02 | 92 | 1022.2 |
| 20260902144227 | 69 | 116 | 1.0 | 2.0 | 0.00 | 0.87 | 0.02 | 92 | 1022.3 |
| 20260902144122 | 69 | 117 | 1.0 | 3.0 | 0.00 | 0.87 | 0.02 | 92 | 1022.3 |
| 20260902144037 | 68 | 98 | 1.0 | 2.0 | 0.00 | 0.87 | 0.02 | 92 | 1022.3 |
| 20260902143928 | 68 | 85 | 0.0 | 1.0 | 0.00 | 0.87 | 0.02 | 92 | 1022.4 |
| 20260902143826 | 68 | 86 | 1.0 | 2.0 | 0.00 | 0.87 | 0.02 | 94 | 1022.5 |
| 20260902143810 | 68 | 107 | 1.0 | 2.0 | 0.00 | 0.87 | 0.02 | 94 | 1022.4 |
| 20260902143525 | 68 | 108 | 1.0 | 1.0 | 0.00 | 0.87 | 0.02 | 94 | 1022.3 |
| 20260902143421 | 68 | 0.0 | 0.0 | 0.00 | 0.87 | 0.02 | 93 | 1022.3 | |
| 20260902143316 | 68 | 0.0 | 0.0 | 0.00 | 0.87 | 0.02 | 93 | 1022.4 | |
| 20260902143228 | 68 | 107 | 0.0 | 1.0 | 0.00 | 0.87 | 0.02 | 92 | 1022.4 |
| 20260902143124 | 68 | 110 | 2.0 | 3.0 | 0.00 | 0.87 | 0.02 | 92 | 1022.3 |
| 20260902143020 | 68 | 112 | 1.0 | 3.0 | 0.00 | 0.87 | 0.02 | 92 | 1022.6 |
| 20260902142915 | 68 | 0.0 | 0.0 | 0.00 | 0.87 | 0.02 | 93 | 1022.4 | |
| 20260902142826 | 68 | 66 | 0.0 | 1.0 | 0.00 | 0.87 | 0.02 | 93 | 1022.4 |
| 20260902142722 | 68 | 78 | 1.0 | 2.0 | 0.00 | 0.87 | 0.02 | 93 | 1022.3 |
| 20260902142618 | 68 | 104 | 2.0 | 2.0 | 0.00 | 0.87 | 0.02 | 93 | 1022.4 |
| 20260902142529 | 68 | 115 | 0.0 | 1.0 | 0.00 | 0.87 | 0.02 | 93 | 1022.3 |
| 20260902142425 | 68 | 114 | 0.0 | 1.0 | 0.00 | 0.87 | 0.02 | 93 | 1022.3 |
| 20260902142321 | 68 | 116 | 1.0 | 2.0 | 0.00 | 0.87 | 0.02 | 94 | 1022.4 |
| 20260902142216 | 68 | 86 | 1.0 | 2.0 | 0.00 | 0.87 | 0.02 | 94 | 1022.3 |
| 20260902142128 | 68 | 86 | 0.0 | 1.0 | 0.00 | 0.87 | 0.02 | 94 | 1022.2 |
| 20260902142024 | 68 | 88 | 2.0 | 6.0 | 0.00 | 0.87 | 0.02 | 94 | 1022.2 |
| 20260902141920 | 68 | 101 | 2.0 | 7.0 | 0.00 | 0.87 | 0.02 | 95 | 1022.5 |
| 20260902141815 | 68 | 82 | 1.0 | 2.0 | 0.00 | 0.87 | 0.02 | 95 | 1022.5 |
| 20260902141726 | 68 | 81 | 0.0 | 1.0 | 0.00 | 0.87 | 0.02 | 96 | 1022.2 |
| 20260902141622 | 68 | 81 | 1.0 | 2.0 | 0.00 | 0.87 | 0.02 | 96 | 1022.2 |
| 20260902141518 | 68 | 82 | 2.0 | 3.0 | 0.00 | 0.87 | 0.02 | 96 | 1022.2 |
| 20260902141429 | 68 | 78 | 0.0 | 1.0 | 0.00 | 0.87 | 0.02 | 96 | 1022.2 |
| 20260902141325 | 67 | 78 | 0.0 | 1.0 | 0.00 | 0.87 | 0.02 | 96 | 1022.3 |
| 20260902141220 | 67 | 0.0 | 0.0 | 0.00 | 0.87 | 0.02 | 96 | 1022.6 | |
| 20260902141136 | 67 | 0.0 | 0.0 | 0.00 | 0.87 | 0.02 | 96 | 1022.4 | |
| 20260902141028 | 67 | 0.0 | 0.0 | 0.00 | 0.87 | 0.02 | 96 | 1022.3 | |
| 20260902140923 | 67 | 79 | 0.0 | 1.0 | 0.00 | 0.87 | 0.02 | 96 | 1022.3 |
| 20260902140819 | 67 | 0.0 | 0.0 | 0.00 | 0.87 | 0.02 | 96 | 1022.3 | |
| 20260902140731 | 67 | 79 | 1.0 | 3.0 | 0.00 | 0.87 | 0.02 | 96 | 1022.4 |
| 20260902140646 | 67 | 78 | 1.0 | 3.0 | 0.00 | 0.87 | 0.02 | 96 | 1022.3 |
| 20260902140541 | 67 | 76 | 1.0 | 3.0 | 0.00 | 0.87 | 0.02 | 95 | 1022.3 |
| 20260902140417 | 67 | 86 | 1.0 | 1.0 | 0.00 | 0.87 | 0.02 | 96 | 1022.4 |
| 20260902140329 | 67 | 83 | 2.0 | 3.0 | 0.00 | 0.87 | 0.02 | 96 | 1022.4 |
| 20260902140225 | 67 | 73 | 1.0 | 1.0 | 0.00 | 0.87 | 0.02 | 96 | 1022.4 |
| 20260902140120 | 67 | 73 | 0.0 | 1.0 | 0.00 | 0.87 | 0.02 | 96 | 1022.4 |
| 20260902140036 | 67 | 74 | 2.0 | 3.0 | 0.00 | 0.87 | 0.02 | 96 | 1022.3 |
| 20260902135928 | 67 | 77 | 1.0 | 2.0 | 0.00 | 0.87 | 0.02 | 96 | 1022.4 |
| 20260902135823 | 67 | 66 | 1.0 | 1.0 | 0.00 | 0.87 | 0.02 | 96 | 1022.4 |
| 20260902135719 | 67 | 66 | 1.0 | 2.0 | 0.01 | 0.87 | 0.02 | 96 | 1022.5 |
| 20260902135630 | 67 | 65 | 0.0 | 1.0 | 0.01 | 0.87 | 0.02 | 95 | 1022.4 |
| 20260902135606 | 67 | 69 | 2.0 | 3.0 | 0.01 | 0.87 | 0.02 | 96 | 1022.3 |
| 20260902135421 | 67 | 97 | 2.0 | 4.0 | 0.01 | 0.87 | 0.02 | 96 | 1022.6 |
| 20260902135317 | 67 | 86 | 3.0 | 3.0 | 0.01 | 0.87 | 0.02 | 96 | 1022.5 |
| 20260902135229 | 67 | 88 | 2.0 | 2.0 | 0.01 | 0.87 | 0.02 | 96 | 1022.4 |
| 20260902135144 | 67 | 99 | 1.0 | 1.0 | 0.01 | 0.87 | 0.02 | 96 | 1022.4 |
| 20260902135020 | 67 | 99 | 1.0 | 1.0 | 0.01 | 0.87 | 0.02 | 96 | 1022.4 |
| 20260902134915 | 67 | 99 | 0.0 | 1.0 | 0.01 | 0.87 | 0.02 | 96 | 1022.5 |
| 20260902134847 | 67 | 99 | 0.0 | 1.0 | 0.01 | 0.87 | 0.02 | 96 | 1022.5 |
| 20260902134722 | 67 | 99 | 0.0 | 1.0 | 0.01 | 0.87 | 0.02 | 96 | 1022.4 |
| 20260902134618 | 67 | 95 | 1.0 | 1.0 | 0.01 | 0.87 | 0.02 | 96 | 1022.3 |
| 20260902134530 | 67 | 108 | 3.0 | 6.0 | 0.01 | 0.87 | 0.02 | 96 | 1022.4 |
| 20260902134425 | 67 | 86 | 1.0 | 1.0 | 0.01 | 0.87 | 0.02 | 96 | 1022.6 |
| 20260902134321 | 67 | 86 | 0.0 | 1.0 | 0.01 | 0.87 | 0.02 | 96 | 1022.6 |
| 20260902134216 | 67 | 86 | 0.0 | 1.0 | 0.01 | 0.87 | 0.02 | 96 | 1022.5 |
| 20260902134128 | 67 | 86 | 0.0 | 1.0 | 0.01 | 0.87 | 0.02 | 96 | 1022.4 |
| 20260902134043 | 67 | 86 | 1.0 | 1.0 | 0.01 | 0.87 | 0.02 | 96 | 1022.3 |
| 20260902133918 | 67 | 86 | 0.0 | 1.0 | 0.01 | 0.87 | 0.02 | 96 | 1022.6 |
| 20260902133830 | 67 | 81 | 1.0 | 2.0 | 0.01 | 0.87 | 0.02 | 97 | 1022.5 |
| 20260902133726 | 67 | 78 | 1.0 | 4.0 | 0.01 | 0.87 | 0.02 | 97 | 1022.6 |
| 20260902133621 | 67 | 63 | 1.0 | 1.0 | 0.01 | 0.87 | 0.02 | 97 | 1022.7 |
| 20260902133517 | 67 | 61 | 0.0 | 1.0 | 0.01 | 0.87 | 0.02 | 97 | 1022.6 |
| 20260902133428 | 67 | 0.0 | 0.0 | 0.01 | 0.87 | 0.02 | 97 | 1022.5 | |
| 20260902133324 | 67 | 60 | 0.0 | 1.0 | 0.01 | 0.87 | 0.02 | 97 | 1022.4 |
| 20260902133220 | 67 | 60 | 0.0 | 1.0 | 0.01 | 0.87 | 0.02 | 97 | 1022.4 |
| 20260902133115 | 67 | 60 | 0.0 | 1.0 | 0.01 | 0.87 | 0.02 | 97 | 1022.4 |
| 20260902133027 | 67 | 60 | 1.0 | 2.0 | 0.01 | 0.87 | 0.02 | 98 | 1022.4 |
| 20260902132922 | 67 | 62 | 0.0 | 1.0 | 0.01 | 0.87 | 0.02 | 98 | 1022.3 |
| 20260902132818 | 67 | 62 | 0.0 | 1.0 | 0.01 | 0.87 | 0.02 | 98 | 1022.3 |
| 20260902132729 | 67 | 63 | 0.0 | 1.0 | 0.01 | 0.87 | 0.02 | 98 | 1022.1 |
| 20260902132627 | 67 | 62 | 0.0 | 1.0 | 0.01 | 0.87 | 0.02 | 98 | 1022.1 |
| 20260902132601 | 67 | 61 | 0.0 | 1.0 | 0.01 | 0.87 | 0.02 | 98 | 1022.1 |
| 20260902132416 | 67 | 62 | 0.0 | 1.0 | 0.01 | 0.87 | 0.02 | 98 | 1022.1 |
| 20260902132328 | 67 | 65 | 0.0 | 1.0 | 0.01 | 0.87 | 0.02 | 98 | 1022.0 |
| 20260902132244 | 67 | 0.0 | 0.0 | 0.01 | 0.87 | 0.02 | 98 | 1022.0 | |
| 20260902132119 | 67 | 65 | 1.0 | 2.0 | 0.01 | 0.87 | 0.02 | 97 | 1022.0 |
| 20260902132031 | 67 | 55 | 0.0 | 1.0 | 0.01 | 0.87 | 0.02 | 97 | 1022.0 |
| 20260902131927 | 67 | 55 | 0.0 | 1.0 | 0.01 | 0.87 | 0.02 | 97 | 1022.1 |
| 20260902131822 | 67 | 55 | 1.0 | 1.0 | 0.01 | 0.87 | 0.02 | 97 | 1022.0 |
| 20260902131718 | 67 | 54 | 1.0 | 1.0 | 0.01 | 0.87 | 0.02 | 97 | 1022.0 |
| 20260902131629 | 67 | 45 | 1.0 | 2.0 | 0.01 | 0.87 | 0.02 | 98 | 1022.0 |
| 20260902131525 | 67 | 10 | 0.0 | 1.0 | 0.01 | 0.87 | 0.02 | 97 | 1021.9 |
| 20260902131420 | 67 | 0.0 | 0.0 | 0.01 | 0.87 | 0.02 | 97 | 1022.1 | |
| 20260902131316 | 67 | 10 | 0.0 | 1.0 | 0.01 | 0.87 | 0.02 | 97 | 1022.0 |
| 20260902131227 | 67 | 10 | 0.0 | 1.0 | 0.01 | 0.87 | 0.01 | 97 | 1022.2 |
| 20260902131123 | 67 | 7 | 1.0 | 1.0 | 0.01 | 0.87 | 0.01 | 97 | 1022.1 |
| 20260902131039 | 67 | 0.0 | 0.0 | 0.01 | 0.87 | 0.01 | 97 | 1022.1 | |
| 20260902130931 | 67 | 0.0 | 0.0 | 0.01 | 0.87 | 0.01 | 97 | 1022.3 | |
| 20260902130826 | 67 | 0.0 | 0.0 | 0.01 | 0.87 | 0.01 | 97 | 1022.2 | |
| 20260902130722 | 67 | 0.0 | 0.0 | 0.01 | 0.87 | 0.01 | 97 | 1022.1 | |
| 20260902130617 | 67 | 0.0 | 0.0 | 0.01 | 0.87 | 0.01 | 97 | 1022.1 | |
| 20260902130529 | 67 | 0.0 | 0.0 | 0.01 | 0.87 | 0.01 | 97 | 1022.0 | |
| 20260902130425 | 67 | 0.0 | 0.0 | 0.01 | 0.87 | 0.01 | 97 | 1022.0 | |
| 20260902130340 | 67 | 0.0 | 0.0 | 0.01 | 0.87 | 0.01 | 97 | 1022.1 | |
| 20260902130216 | 67 | 0.0 | 0.0 | 0.01 | 0.87 | 0.01 | 97 | 1022.0 | |
| 20260902130127 | 67 | 0.0 | 0.0 | 0.01 | 0.87 | 0.01 | 97 | 1022.1 | |
| 20260902130119 | 67 | 0.0 | 0.0 | 0.01 | 0.87 | 0.01 | 97 | 1022.0 | |
| 20260902130059 | 67 | 0.0 | 0.0 | 0.01 | 0.87 | 0.01 | 97 | 1022.1 | |
| 20260902125830 | 67 | 5 | 0.0 | 1.0 | 0.01 | 0.87 | 0.01 | 97 | 1022.1 |
| 20260902125726 | 67 | 5 | 1.0 | 1.0 | 0.00 | 0.86 | 0.01 | 97 | 1022.1 |
| 20260902125622 | 66 | 0.0 | 0.0 | 0.00 | 0.86 | 0.01 | 97 | 1022.0 | |
| 20260902125557 | 66 | 0.0 | 0.0 | 0.00 | 0.86 | 0.01 | 97 | 1022.0 | |
| 20260902125429 | 66 | 0.0 | 0.0 | 0.00 | 0.86 | 0.01 | 97 | 1022.1 | |
| 20260902125324 | 66 | 0.0 | 0.0 | 0.00 | 0.86 | 0.01 | 97 | 1022.0 | |
| 20260902125220 | 66 | 0.0 | 0.0 | 0.00 | 0.86 | 0.01 | 97 | 1022.0 | |
| 20260902125115 | 66 | 0.0 | 0.0 | 0.00 | 0.86 | 0.01 | 97 | 1022.0 | |
| 20260902125107 | 66 | 0.0 | 0.0 | 0.00 | 0.86 | 0.01 | 97 | 1022.1 | |
| 20260902124943 | 66 | 0.0 | 0.0 | 0.00 | 0.86 | 0.01 | 97 | 1022.1 | |
| 20260902124818 | 66 | 0.0 | 0.0 | 0.00 | 0.86 | 0.01 | 97 | 1022.0 | |
| 20260902124730 | 66 | 0.0 | 0.0 | 0.00 | 0.86 | 0.01 | 97 | 1022.2 | |
| 20260902124625 | 66 | 0.0 | 0.0 | 0.00 | 0.86 | 0.01 | 97 | 1022.2 | |
| 20260902124521 | 66 | 0.0 | 0.0 | 0.00 | 0.86 | 0.01 | 97 | 1022.0 | |
| 20260902124416 | 66 | 0.0 | 0.0 | 0.00 | 0.86 | 0.01 | 97 | 1022.2 | |
| 20260902124328 | 66 | 0.0 | 0.0 | 0.00 | 0.86 | 0.01 | 97 | 1022.1 | |
| 20260902124224 | 66 | 4 | 0.0 | 1.0 | 0.00 | 0.86 | 0.01 | 97 | 1022.1 |
| 20260902124119 | 66 | 5 | 0.0 | 1.0 | 0.00 | 0.86 | 0.01 | 97 | 1022.0 |
| 20260902124015 | 66 | 0.0 | 0.0 | 0.00 | 0.86 | 0.01 | 97 | 1022.0 | |
| 20260902123927 | 66 | 0.0 | 0.0 | 0.00 | 0.86 | 0.00 | 97 | 1021.9 | |
| 20260902123822 | 66 | 0.0 | 0.0 | 0.00 | 0.86 | 0.00 | 97 | 1021.9 | |
| 20260902123718 | 66 | 0.0 | 0.0 | 0.00 | 0.86 | 0.00 | 97 | 1021.9 | |
| 20260902123629 | 66 | 0.0 | 0.0 | 0.00 | 0.86 | 0.00 | 97 | 1021.7 | |
| 20260902123525 | 66 | 6 | 0.0 | 1.0 | 0.00 | 0.86 | 0.00 | 97 | 1021.9 |
| 20260902123420 | 66 | 0.0 | 0.0 | 0.00 | 0.86 | 0.00 | 97 | 1021.7 | |
| 20260902123336 | 66 | 0.0 | 0.0 | 0.00 | 0.86 | 0.00 | 97 | 1021.7 | |
| 20260902123228 | 66 | 0.0 | 0.0 | 0.00 | 0.86 | 0.00 | 97 | 1021.7 | |
| 20260902123123 | 66 | 0.0 | 0.0 | 0.00 | 0.86 | 0.00 | 97 | 1021.7 | |
| 20260902123019 | 66 | 0.0 | 0.0 | 0.00 | 0.86 | 0.00 | 97 | 1021.9 | |
| 20260902122931 | 66 | 0.0 | 0.0 | 0.00 | 0.86 | 0.00 | 97 | 1021.8 | |
| 20260902122826 | 66 | 0.0 | 0.0 | 0.00 | 0.86 | 0.00 | 97 | 1021.8 | |
| 20260902122722 | 66 | 0.0 | 0.0 | 0.00 | 0.86 | 0.00 | 97 | 1021.6 | |
| 20260902122617 | 66 | 0.0 | 0.0 | 0.00 | 0.86 | 0.00 | 97 | 1021.5 | |
| 20260902122529 | 66 | 0.0 | 0.0 | 0.00 | 0.86 | 0.00 | 97 | 1021.6 | |
| 20260902122424 | 66 | 0.0 | 0.0 | 0.00 | 0.86 | 0.00 | 97 | 1021.6 | |
| 20260902122320 | 66 | 0.0 | 0.0 | 0.00 | 0.86 | 0.00 | 97 | 1021.7 | |
| 20260902122216 | 66 | 0.0 | 0.0 | 0.00 | 0.86 | 0.00 | 97 | 1021.7 | |
| 20260902122127 | 66 | 0.0 | 0.0 | 0.00 | 0.86 | 0.00 | 97 | 1021.6 | |
| 20260902122022 | 66 | 5 | 0.0 | 1.0 | 0.00 | 0.86 | 0.00 | 97 | 1021.6 |
| 20260902121918 | 66 | 6 | 0.0 | 1.0 | 0.00 | 0.86 | 0.00 | 97 | 1021.8 |
| 20260902121830 | 66 | 5 | 0.0 | 1.0 | 0.00 | 0.86 | 0.00 | 97 | 1021.6 |
| 20260902121725 | 66 | 5 | 0.0 | 1.0 | 0.00 | 0.86 | 0.00 | 97 | 1021.6 |
| 20260902121621 | 66 | 0.0 | 0.0 | 0.00 | 0.86 | 0.00 | 97 | 1021.6 | |
| 20260902121517 | 66 | 0.0 | 0.0 | 0.00 | 0.86 | 0.00 | 97 | 1021.6 | |
| 20260902121448 | 66 | 0.0 | 0.0 | 0.00 | 0.86 | 0.00 | 97 | 1021.6 | |
| 20260902121324 | 66 | 0.0 | 0.0 | 0.00 | 0.86 | 0.00 | 97 | 1021.7 | |
| 20260902121219 | 66 | 0.0 | 0.0 | 0.00 | 0.86 | 0.00 | 97 | 1021.7 | |
| 20260902121115 | 66 | 0.0 | 0.0 | 0.00 | 0.86 | 0.00 | 97 | 1021.7 | |
| 20260902121027 | 66 | 0.0 | 0.0 | 0.00 | 0.86 | 0.00 | 97 | 1021.6 | |
| 20260902120922 | 66 | 0.0 | 0.0 | 0.00 | 0.86 | 0.00 | 97 | 1021.7 | |
| 20260902120818 | 66 | 0.0 | 0.0 | 0.00 | 0.86 | 0.00 | 97 | 1021.7 | |
| 20260902120729 | 66 | 6 | 0.0 | 1.0 | 0.00 | 0.86 | 0.00 | 97 | 1021.6 |
| 20260902120625 | 66 | 5 | 0.0 | 1.0 | 0.00 | 0.86 | 0.00 | 97 | 1021.7 |
| 20260902120521 | 66 | 0.0 | 0.0 | 0.00 | 0.86 | 0.00 | 97 | 1021.5 | |
| 20260902120416 | 66 | 5 | 0.0 | 1.0 | 0.00 | 0.86 | 0.00 | 97 | 1021.6 |
| 20260902120328 | 66 | 4 | 1.0 | 1.0 | 0.00 | 0.86 | 0.00 | 97 | 1021.4 |
| 20260902120223 | 66 | 0.0 | 0.0 | 0.00 | 0.86 | 0.00 | 97 | 1021.4 | |
| 20260902120118 | 66 | 0.0 | 0.0 | 0.00 | 0.86 | 0.00 | 97 | 1021.5 | |
| 20260902120030 | 66 | 0.0 | 0.0 | 0.00 | 0.86 | 0.00 | 97 | 1021.6 | |
| 20260902115946 | 66 | 1 | 0.0 | 1.0 | 0.00 | 0.86 | 0.00 | 97 | 1021.6 |
| 20260902115901 | 66 | 0.0 | 0.0 | 0.00 | 0.86 | 0.00 | 97 | 1021.8 | |
| 20260902115717 | 66 | 0.0 | 0.0 | 0.00 | 0.86 | 0.00 | 97 | 1021.4 | |
| 20260902115629 | 66 | 0.0 | 0.0 | 0.00 | 0.86 | 0.00 | 97 | 1021.6 | |
| 20260902115524 | 66 | 0.0 | 0.0 | 0.00 | 0.86 | 0.00 | 97 | 1021.5 | |
| 20260902115420 | 66 | 1 | 0.0 | 1.0 | 0.00 | 0.86 | 0.00 | 97 | 1021.4 |
| 20260902115315 | 66 | 1 | 0.0 | 1.0 | 0.00 | 0.86 | 0.00 | 97 | 1021.6 |
| 20260902115227 | 66 | 0.0 | 0.0 | 0.00 | 0.86 | 0.00 | 97 | 1021.7 | |
| 20260902115142 | 66 | 0.0 | 0.0 | 0.00 | 0.86 | 0.00 | 97 | 1021.5 | |
| 20260902115018 | 66 | 0.0 | 0.0 | 0.00 | 0.86 | 0.00 | 97 | 1021.5 | |
| 20260902114929 | 66 | 1 | 0.0 | 1.0 | 0.00 | 0.86 | 0.00 | 97 | 1021.6 |
| 20260902114825 | 66 | 0.0 | 0.0 | 0.00 | 0.86 | 0.00 | 97 | 1021.4 | |
| 20260902114721 | 66 | 0.0 | 0.0 | 0.00 | 0.86 | 0.00 | 97 | 1021.5 | |
| 20260902114636 | 66 | 0.0 | 0.0 | 0.00 | 0.86 | 0.00 | 97 | 1021.8 | |
| 20260902114528 | 66 | 0.0 | 0.0 | 0.00 | 0.86 | 0.00 | 97 | 1021.6 | |
| 20260902114423 | 66 | 0.0 | 0.0 | 0.00 | 0.86 | 0.00 | 97 | 1021.6 | |
| 20260902114319 | 66 | 0.0 | 0.0 | 0.00 | 0.86 | 0.00 | 97 | 1021.7 | |
| 20260902114230 | 66 | 0.0 | 0.0 | 0.00 | 0.86 | 0.00 | 97 | 1021.7 | |
| 20260902114126 | 66 | 0.0 | 0.0 | 0.00 | 0.86 | 0.00 | 97 | 1021.8 | |
| 20260902114041 | 66 | 0.0 | 0.0 | 0.00 | 0.86 | 0.00 | 97 | 1021.6 | |
| 20260902113917 | 66 | 1 | 0.0 | 1.0 | 0.00 | 0.86 | 0.00 | 97 | 1021.5 |
| 20260902113829 | 66 | 359 | 0.0 | 1.0 | 0.00 | 0.86 | 0.00 | 97 | 1021.5 |
| 20260902113725 | 66 | 0.0 | 0.0 | 0.00 | 0.86 | 0.00 | 97 | 1021.5 | |
| 20260902113640 | 66 | 0.0 | 0.0 | 0.00 | 0.86 | 0.00 | 97 | 1021.5 | |
| 20260902113516 | 66 | 0.0 | 0.0 | 0.00 | 0.86 | 0.00 | 97 | 1021.6 | |
| 20260902113427 | 66 | 0.0 | 0.0 | 0.00 | 0.86 | 0.00 | 97 | 1021.6 | |
| 20260902113323 | 66 | 0.0 | 0.0 | 0.00 | 0.86 | 0.00 | 97 | 1021.5 | |
| 20260902113218 | 66 | 0.0 | 0.0 | 0.00 | 0.86 | 0.00 | 97 | 1021.5 | |
| 20260902113130 | 66 | 0.0 | 0.0 | 0.00 | 0.86 | 0.00 | 97 | 1021.6 | |
| 20260902113026 | 66 | 0.0 | 0.0 | 0.00 | 0.86 | 0.00 | 97 | 1021.5 | |
| 20260902112941 | 66 | 0.0 | 0.0 | 0.00 | 0.86 | 0.00 | 97 | 1021.5 | |
| 20260902112817 | 66 | 0.0 | 0.0 | 0.00 | 0.86 | 0.00 | 97 | 1021.6 | |
| 20260902112729 | 66 | 0.0 | 0.0 | 0.00 | 0.86 | 0.00 | 97 | 1021.6 | |
| 20260902112624 | 66 | 0.0 | 0.0 | 0.00 | 0.86 | 0.00 | 97 | 1021.6 | |
| 20260902112520 | 66 | 0.0 | 0.0 | 0.00 | 0.86 | 0.00 | 97 | 1021.6 | |
| 20260902112415 | 66 | 0.0 | 0.0 | 0.00 | 0.86 | 0.00 | 97 | 1021.4 | |
| 20260902112327 | 66 | 0.0 | 0.0 | 0.00 | 0.86 | 0.00 | 97 | 1021.6 | |
| 20260902112222 | 66 | 0.0 | 0.0 | 0.00 | 0.85 | 0.00 | 97 | 1021.6 | |
| 20260902112118 | 66 | 0.0 | 0.0 | 0.00 | 0.85 | 0.00 | 97 | 1021.7 | |
| 20260902112030 | 66 | 0.0 | 0.0 | 0.00 | 0.85 | 0.00 | 97 | 1021.6 | |
| 20260902111925 | 66 | 0.0 | 0.0 | 0.00 | 0.85 | 0.00 | 97 | 1021.6 | |
| 20260902111821 | 66 | 0.0 | 0.0 | 0.00 | 0.85 | 0.00 | 97 | 1021.7 | |
| 20260902111716 | 66 | 0.0 | 0.0 | 0.00 | 0.85 | 0.00 | 97 | 1021.7 | |
| 20260902111628 | 66 | 0.0 | 0.0 | 0.00 | 0.85 | 0.00 | 97 | 1021.6 | |
| 20260902111524 | 66 | 0.0 | 0.0 | 0.00 | 0.85 | 0.00 | 97 | 1021.6 | |
| 20260902111419 | 66 | 312 | 0.0 | 1.0 | 0.00 | 0.85 | 0.00 | 97 | 1021.6 |
| 20260902111331 | 66 | 311 | 0.0 | 1.0 | 0.00 | 0.85 | 0.00 | 97 | 1021.7 |
| 20260902111227 | 66 | 0.0 | 0.0 | 0.00 | 0.85 | 0.00 | 97 | 1021.6 | |
| 20260902111142 | 66 | 311 | 0.0 | 1.0 | 0.00 | 0.85 | 0.00 | 97 | 1021.6 |
| 20260902111018 | 66 | 311 | 0.0 | 1.0 | 0.00 | 0.85 | 0.00 | 97 | 1021.6 |
| 20260902110929 | 66 | 315 | 0.0 | 1.0 | 0.00 | 0.85 | 0.00 | 97 | 1021.6 |
| 20260902110845 | 66 | 0.0 | 0.0 | 0.00 | 0.85 | 0.00 | 97 | 1021.4 | |
| 20260902110721 | 66 | 0.0 | 0.0 | 0.00 | 0.85 | 0.00 | 97 | 1021.4 | |
| 20260902110616 | 66 | 314 | 0.0 | 1.0 | 0.00 | 0.85 | 0.00 | 97 | 1021.3 |
| 20260902110528 | 66 | 314 | 0.0 | 1.0 | 0.00 | 0.85 | 0.00 | 97 | 1021.5 |
| 20260902110424 | 66 | 314 | 0.0 | 1.0 | 0.00 | 0.85 | 0.00 | 97 | 1021.4 |
| 20260902110339 | 66 | 0.0 | 0.0 | 0.00 | 0.85 | 0.00 | 97 | 1021.5 | |
| 20260902110231 | 66 | 0.0 | 0.0 | 0.00 | 0.85 | 0.00 | 97 | 1021.6 | |
| 20260902110126 | 66 | 314 | 0.0 | 1.0 | 0.00 | 0.85 | 0.00 | 97 | 1021.6 |
| 20260902110022 | 66 | 0.0 | 0.0 | 0.00 | 0.85 | 0.00 | 97 | 1021.5 | |
| 20260902105918 | 66 | 314 | 1.0 | 2.0 | 0.00 | 0.85 | 0.00 | 97 | 1021.5 |
| 20260902105829 | 66 | 0.0 | 0.0 | 0.00 | 0.85 | 0.00 | 97 | 1021.5 | |
| 20260902105725 | 66 | 0.0 | 0.0 | 0.00 | 0.85 | 0.00 | 97 | 1021.5 | |
| 20260902105620 | 66 | 0.0 | 0.0 | 0.00 | 0.85 | 0.00 | 97 | 1021.6 | |
| 20260902105516 | 66 | 335 | 0.0 | 1.0 | 0.00 | 0.85 | 0.00 | 97 | 1021.7 |
| 20260902105427 | 66 | 335 | 1.0 | 2.0 | 0.00 | 0.85 | 0.00 | 97 | 1021.6 |
| 20260902105323 | 66 | 334 | 2.0 | 2.0 | 0.00 | 0.85 | 0.00 | 97 | 1021.6 |
| 20260902105218 | 66 | 0.0 | 0.0 | 0.00 | 0.85 | 0.00 | 97 | 1021.6 | |
| 20260902105150 | 66 | 341 | 1.0 | 1.0 | 0.00 | 0.85 | 0.00 | 97 | 1021.7 |
| 20260902105026 | 66 | 341 | 0.0 | 1.0 | 0.00 | 0.85 | 0.00 | 97 | 1021.5 |
| 20260902104921 | 66 | 0.0 | 0.0 | 0.00 | 0.85 | 0.00 | 96 | 1021.6 | |
| 20260902104817 | 66 | 0.0 | 0.0 | 0.00 | 0.85 | 0.00 | 96 | 1021.6 | |
| 20260902104728 | 66 | 0.0 | 0.0 | 0.00 | 0.85 | 0.00 | 96 | 1021.5 | |
| 20260902104624 | 66 | 342 | 0.0 | 1.0 | 0.00 | 0.85 | 0.00 | 96 | 1021.5 |
| 20260902104520 | 66 | 341 | 0.0 | 1.0 | 0.00 | 0.85 | 0.00 | 96 | 1021.4 |
| 20260902104435 | 66 | 0.0 | 0.0 | 0.00 | 0.85 | 0.00 | 96 | 1021.5 | |
| 20260902104327 | 66 | 0.0 | 0.0 | 0.00 | 0.85 | 0.00 | 96 | 1021.5 | |
| 20260902104222 | 66 | 0.0 | 0.0 | 0.00 | 0.85 | 0.00 | 96 | 1021.4 | |
| 20260902104118 | 66 | 0.0 | 0.0 | 0.00 | 0.85 | 0.00 | 96 | 1021.4 | |
| 20260902104030 | 66 | 342 | 0.0 | 1.0 | 0.00 | 0.85 | 0.00 | 96 | 1021.6 |
| 20260902103925 | 66 | 0.0 | 0.0 | 0.00 | 0.85 | 0.00 | 96 | 1021.5 | |
| 20260902103820 | 66 | 0.0 | 0.0 | 0.00 | 0.85 | 0.00 | 96 | 1021.5 | |
| 20260902103716 | 66 | 0.0 | 0.0 | 0.00 | 0.85 | 0.00 | 96 | 1021.6 | |
| 20260902103628 | 66 | 0.0 | 0.0 | 0.00 | 0.85 | 0.00 | 96 | 1021.5 | |
| 20260902103523 | 66 | 0.0 | 0.0 | 0.00 | 0.85 | 0.00 | 96 | 1021.5 | |
| 20260902103419 | 66 | 342 | 0.0 | 1.0 | 0.00 | 0.85 | 0.00 | 96 | 1021.6 |
| 20260902103331 | 66 | 342 | 1.0 | 1.0 | 0.00 | 0.85 | 0.00 | 96 | 1021.4 |
| 20260902103246 | 66 | 342 | 0.0 | 1.0 | 0.00 | 0.85 | 0.00 | 96 | 1021.3 |
| 20260902103122 | 66 | 342 | 0.0 | 1.0 | 0.00 | 0.85 | 0.00 | 96 | 1021.2 |
| 20260902103018 | 66 | 342 | 0.0 | 1.0 | 0.00 | 0.85 | 0.00 | 96 | 1021.2 |
| 20260902102929 | 66 | 0.0 | 0.0 | 0.00 | 0.85 | 0.00 | 96 | 1021.3 | |
| 20260902102845 | 66 | 0.0 | 0.0 | 0.00 | 0.85 | 0.00 | 96 | 1021.2 | |
| 20260902102801 | 66 | 0.0 | 0.0 | 0.00 | 0.85 | 0.00 | 96 | 1021.3 | |
| 20260902102616 | 66 | 341 | 0.0 | 1.0 | 0.00 | 0.85 | 0.00 | 96 | 1021.2 |
| 20260902102528 | 66 | 341 | 0.0 | 1.0 | 0.00 | 0.85 | 0.00 | 96 | 1021.4 |
| 20260902102423 | 66 | 0.0 | 0.0 | 0.00 | 0.85 | 0.00 | 96 | 1021.3 | |
| 20260902102319 | 66 | 341 | 0.0 | 1.0 | 0.00 | 0.85 | 0.00 | 96 | 1021.3 |
| 20260902102230 | 66 | 341 | 1.0 | 2.0 | 0.00 | 0.85 | 0.00 | 96 | 1021.3 |
| 20260902102126 | 66 | 0.0 | 0.0 | 0.00 | 0.85 | 0.00 | 96 | 1021.3 | |
| 20260902102042 | 66 | 311 | 0.0 | 1.0 | 0.00 | 0.85 | 0.00 | 96 | 1021.3 |
| 20260902101917 | 66 | 312 | 0.0 | 1.0 | 0.00 | 0.85 | 0.00 | 96 | 1021.3 |
| 20260902101829 | 66 | 0.0 | 0.0 | 0.00 | 0.85 | 0.00 | 96 | 1021.4 | |
| 20260902101725 | 66 | 0.0 | 0.0 | 0.00 | 0.85 | 0.00 | 96 | 1021.3 | |
| 20260902101620 | 66 | 311 | 0.0 | 1.0 | 0.00 | 0.85 | 0.00 | 96 | 1021.3 |
| 20260902101516 | 66 | 311 | 0.0 | 1.0 | 0.00 | 0.85 | 0.00 | 96 | 1021.3 |
| 20260902101427 | 66 | 312 | 0.0 | 1.0 | 0.00 | 0.85 | 0.00 | 96 | 1021.4 |
| 20260902101343 | 66 | 311 | 1.0 | 1.0 | 0.00 | 0.85 | 0.00 | 96 | 1021.2 |
| 20260902101219 | 66 | 305 | 1.0 | 3.0 | 0.00 | 0.85 | 0.00 | 96 | 1021.0 |
| 20260902101150 | 66 | 0.0 | 0.0 | 0.00 | 0.85 | 0.00 | 96 | 1021.1 | |
| 20260902101026 | 66 | 303 | 1.0 | 3.0 | 0.00 | 0.85 | 0.00 | 96 | 1021.1 |
| 20260902100921 | 66 | 305 | 2.0 | 4.0 | 0.00 | 0.85 | 0.00 | 96 | 1021.2 |
| 20260902100817 | 66 | 333 | 0.0 | 1.0 | 0.00 | 0.85 | 0.00 | 96 | 1021.1 |
| 20260902100728 | 66 | 333 | 0.0 | 1.0 | 0.00 | 0.85 | 0.00 | 96 | 1021.1 |
| 20260902100644 | 66 | 0.0 | 0.0 | 0.00 | 0.85 | 0.00 | 96 | 1021.1 | |
| 20260902100519 | 66 | 0.0 | 0.0 | 0.00 | 0.85 | 0.00 | 96 | 1021.1 | |
| 20260902100451 | 66 | 333 | 0.0 | 1.0 | 0.00 | 0.85 | 0.00 | 96 | 1021.3 |
| 20260902100326 | 66 | 333 | 0.0 | 1.0 | 0.00 | 0.85 | 0.00 | 96 | 1021.1 |
| 20260902100222 | 66 | 0.0 | 0.0 | 0.00 | 0.85 | 0.00 | 96 | 1021.1 | |
| 20260902100117 | 66 | 0.0 | 0.0 | 0.00 | 0.85 | 0.00 | 96 | 1021.2 | |
| 20260902100029 | 66 | 0.0 | 0.0 | 0.00 | 0.85 | 0.00 | 96 | 1021.0 | |
| 20260902095924 | 66 | 0.0 | 0.0 | 0.00 | 0.85 | 0.00 | 96 | 1021.1 | |
| 20260902095840 | 66 | 0.0 | 0.0 | 0.00 | 0.85 | 0.00 | 96 | 1021.1 | |
| 20260902095715 | 66 | 333 | 0.0 | 1.0 | 0.00 | 0.85 | 0.00 | 96 | 1021.1 |
| 20260902095627 | 66 | 0.0 | 0.0 | 0.00 | 0.85 | 0.00 | 96 | 1021.0 | |
| 20260902095522 | 66 | 0.0 | 0.0 | 0.00 | 0.85 | 0.00 | 96 | 1021.0 | |
| 20260902095418 | 66 | 0.0 | 0.0 | 0.00 | 0.85 | 0.00 | 96 | 1021.1 | |
| 20260902095330 | 66 | 0.0 | 0.0 | 0.00 | 0.85 | 0.00 | 96 | 1021.1 | |
| 20260902095225 | 66 | 0.0 | 0.0 | 0.00 | 0.85 | 0.00 | 96 | 1021.0 | |
| 20260902095121 | 66 | 333 | 0.0 | 1.0 | 0.00 | 0.85 | 0.00 | 96 | 1020.8 |
| 20260902095016 | 66 | 333 | 0.0 | 1.0 | 0.00 | 0.85 | 0.00 | 96 | 1020.9 |
| 20260902094928 | 66 | 333 | 1.0 | 3.0 | 0.00 | 0.85 | 0.00 | 96 | 1020.9 |
| 20260902094824 | 66 | 332 | 1.0 | 3.0 | 0.00 | 0.85 | 0.00 | 96 | 1020.9 |
| 20260902094719 | 67 | 0.0 | 0.0 | 0.00 | 0.85 | 0.00 | 96 | 1020.9 | |
| 20260902094651 | 67 | 80 | 0.0 | 1.0 | 0.00 | 0.85 | 0.00 | 96 | 1020.8 |
| 20260902094526 | 67 | 73 | 0.0 | 1.0 | 0.00 | 0.85 | 0.00 | 96 | 1021.0 |
| 20260902094422 | 67 | 0.0 | 0.0 | 0.00 | 0.85 | 0.00 | 96 | 1020.9 | |
| 20260902094317 | 67 | 0.0 | 0.0 | 0.00 | 0.85 | 0.00 | 96 | 1020.9 | |
| 20260902094229 | 67 | 73 | 0.0 | 1.0 | 0.00 | 0.85 | 0.00 | 96 | 1021.0 |
| 20260902094144 | 67 | 72 | 0.0 | 1.0 | 0.00 | 0.85 | 0.00 | 96 | 1020.9 |
| 20260902094020 | 67 | 73 | 1.0 | 1.0 | 0.00 | 0.85 | 0.00 | 96 | 1020.9 |
| 20260902093916 | 67 | 0.0 | 0.0 | 0.00 | 0.85 | 0.00 | 96 | 1020.9 | |
| 20260902093847 | 67 | 74 | 0.0 | 1.0 | 0.00 | 0.85 | 0.00 | 96 | 1020.9 |
| 20260902093723 | 67 | 74 | 0.0 | 1.0 | 0.00 | 0.85 | 0.00 | 96 | 1020.8 |
| 20260902093618 | 67 | 0.0 | 0.0 | 0.00 | 0.85 | 0.00 | 96 | 1020.8 | |
| 20260902093530 | 67 | 74 | 0.0 | 1.0 | 0.00 | 0.85 | 0.00 | 96 | 1020.7 |
| 20260902093425 | 67 | 74 | 0.0 | 1.0 | 0.00 | 0.85 | 0.00 | 96 | 1020.7 |
| 20260902093321 | 67 | 74 | 0.0 | 1.0 | 0.00 | 0.85 | 0.00 | 96 | 1021.0 |
| 20260902093216 | 67 | 74 | 0.0 | 1.0 | 0.00 | 0.85 | 0.00 | 96 | 1020.8 |
| 20260902093128 | 67 | 0.0 | 0.0 | 0.00 | 0.85 | 0.00 | 96 | 1020.6 | |
| 20260902093024 | 67 | 74 | 0.0 | 1.0 | 0.00 | 0.85 | 0.00 | 96 | 1020.8 |
| 20260902092919 | 67 | 74 | 1.0 | 2.0 | 0.00 | 0.85 | 0.00 | 96 | 1020.8 |
| 20260902092831 | 67 | 76 | 0.0 | 1.0 | 0.00 | 0.85 | 0.00 | 96 | 1020.7 |
| 20260902092727 | 67 | 74 | 1.0 | 2.0 | 0.00 | 0.85 | 0.00 | 96 | 1020.7 |
| 20260902092622 | 67 | 24 | 0.0 | 1.0 | 0.00 | 0.85 | 0.00 | 96 | 1020.6 |
| 20260902092537 | 67 | 0.0 | 0.0 | 0.00 | 0.85 | 0.00 | 96 | 1020.6 | |
| 20260902092429 | 67 | 24 | 0.0 | 1.0 | 0.00 | 0.85 | 0.00 | 96 | 1020.7 |
| 20260902092326 | 67 | 24 | 0.0 | 1.0 | 0.00 | 0.85 | 0.00 | 96 | 1020.6 |
| 20260902092220 | 67 | 24 | 0.0 | 1.0 | 0.00 | 0.85 | 0.00 | 96 | 1020.7 |
| 20260902092116 | 67 | 18 | 1.0 | 1.0 | 0.00 | 0.85 | 0.00 | 96 | 1020.8 |
| 20260902092048 | 67 | 14 | 1.0 | 1.0 | 0.00 | 0.85 | 0.00 | 96 | 1020.7 |
| 20260902091943 | 67 | 14 | 0.0 | 1.0 | 0.00 | 0.85 | 0.00 | 96 | 1020.7 |
| 20260902091819 | 67 | 14 | 0.0 | 1.0 | 0.00 | 0.85 | 0.00 | 96 | 1020.7 |
| 20260902091730 | 67 | 9 | 1.0 | 1.0 | 0.00 | 0.85 | 0.00 | 96 | 1020.8 |
| 20260902091625 | 67 | 1 | 0.0 | 2.0 | 0.00 | 0.85 | 0.00 | 96 | 1020.8 |
| 20260902091601 | 67 | 0.0 | 0.0 | 0.00 | 0.85 | 0.00 | 96 | 1020.8 | |
| 20260902091436 | 67 | 344 | 0.0 | 1.0 | 0.00 | 0.85 | 0.00 | 96 | 1020.8 |
| 20260902091328 | 67 | 348 | 0.0 | 1.0 | 0.00 | 0.85 | 0.00 | 96 | 1020.8 |
| 20260902091223 | 67 | 349 | 0.0 | 2.0 | 0.00 | 0.85 | 0.00 | 96 | 1020.8 |
| 20260902091119 | 67 | 0.0 | 0.0 | 0.00 | 0.85 | 0.00 | 96 | 1020.9 | |
| 20260902091031 | 67 | 338 | 0.0 | 1.0 | 0.00 | 0.85 | 0.00 | 96 | 1020.8 |
| 20260902090926 | 67 | 338 | 0.0 | 1.0 | 0.00 | 0.85 | 0.00 | 96 | 1020.7 |
| 20260902090822 | 67 | 336 | 0.0 | 1.0 | 0.00 | 0.85 | 0.00 | 96 | 1020.6 |
| 20260902090717 | 67 | 0.0 | 0.0 | 0.00 | 0.85 | 0.00 | 96 | 1020.8 | |
| 20260902090629 | 67 | 0.0 | 0.0 | 0.00 | 0.85 | 0.00 | 96 | 1020.7 | |
| 20260902090525 | 67 | 336 | 0.0 | 1.0 | 0.00 | 0.85 | 0.00 | 96 | 1020.7 |
| 20260902090420 | 67 | 336 | 0.0 | 1.0 | 0.00 | 0.85 | 0.00 | 96 | 1020.8 |
| 20260902090315 | 67 | 335 | 1.0 | 3.0 | 0.00 | 0.85 | 0.00 | 96 | 1020.7 |
| 20260902090227 | 67 | 82 | 0.0 | 1.0 | 0.00 | 0.85 | 0.00 | 96 | 1020.6 |
| 20260902090123 | 67 | 82 | 1.0 | 1.0 | 0.00 | 0.85 | 0.00 | 96 | 1020.5 |
| 20260902090018 | 67 | 82 | 0.0 | 1.0 | 0.00 | 0.85 | 0.00 | 96 | 1020.5 |
| 20260902085950 | 67 | 82 | 0.0 | 1.0 | 0.00 | 0.85 | 0.00 | 96 | 1020.5 |
| 20260902085826 | 67 | 82 | 0.0 | 1.0 | 0.00 | 0.85 | 0.00 | 96 | 1020.5 |
| 20260902085721 | 67 | 82 | 0.0 | 1.0 | 0.00 | 0.85 | 0.00 | 96 | 1020.5 |
| 20260902085616 | 67 | 0.0 | 0.0 | 0.00 | 0.85 | 0.00 | 96 | 1020.6 | |
| 20260902085528 | 67 | 0.0 | 0.0 | 0.00 | 0.85 | 0.00 | 96 | 1020.4 | |
| 20260902085423 | 67 | 0.0 | 0.0 | 0.00 | 0.85 | 0.00 | 96 | 1020.4 | |
| 20260902085319 | 67 | 0.0 | 0.0 | 0.00 | 0.85 | 0.00 | 96 | 1020.5 | |
| 20260902085230 | 67 | 0.0 | 0.0 | 0.00 | 0.85 | 0.00 | 96 | 1020.7 | |
| 20260902085126 | 67 | 0.0 | 0.0 | 0.00 | 0.85 | 0.00 | 96 | 1020.4 | |
| 20260902085021 | 67 | 0.0 | 0.0 | 0.00 | 0.85 | 0.00 | 96 | 1020.4 | |
| 20260902084916 | 67 | 0.0 | 0.0 | 0.00 | 0.85 | 0.00 | 96 | 1020.4 | |
| 20260902084828 | 67 | 0.0 | 0.0 | 0.00 | 0.85 | 0.00 | 96 | 1020.6 | |
| 20260902084723 | 67 | 82 | 0.0 | 1.0 | 0.00 | 0.85 | 0.00 | 96 | 1020.7 |
| 20260902084619 | 67 | 82 | 1.0 | 1.0 | 0.00 | 0.85 | 0.00 | 96 | 1020.5 |
| 20260902084530 | 67 | 0.0 | 0.0 | 0.00 | 0.85 | 0.00 | 96 | 1020.6 | |
| 20260902084426 | 67 | 81 | 0.0 | 1.0 | 0.00 | 0.85 | 0.00 | 96 | 1020.6 |
| 20260902084322 | 67 | 81 | 0.0 | 1.0 | 0.00 | 0.85 | 0.00 | 96 | 1020.6 |
| 20260902084217 | 67 | 81 | 0.0 | 1.0 | 0.00 | 0.85 | 0.00 | 96 | 1020.5 |
| 20260902084128 | 67 | 81 | 0.0 | 1.0 | 0.00 | 0.85 | 0.00 | 96 | 1020.6 |
| 20260902084024 | 67 | 0.0 | 0.0 | 0.00 | 0.85 | 0.00 | 96 | 1020.4 | |
| 20260902083919 | 67 | 0.0 | 0.0 | 0.00 | 0.85 | 0.00 | 96 | 1020.4 | |
| 20260902083815 | 67 | 0.0 | 0.0 | 0.00 | 0.85 | 0.00 | 96 | 1020.7 | |
| 20260902083727 | 67 | 0.0 | 0.0 | 0.00 | 0.85 | 0.00 | 96 | 1020.5 | |
| 20260902083621 | 67 | 0.0 | 0.0 | 0.00 | 0.85 | 0.00 | 96 | 1020.8 | |
| 20260902083517 | 67 | 0.0 | 0.0 | 0.00 | 0.85 | 0.00 | 96 | 1020.5 | |
| 20260902083429 | 67 | 0.0 | 0.0 | 0.00 | 0.85 | 0.00 | 96 | 1020.4 | |
| 20260902083324 | 67 | 0.0 | 0.0 | 0.00 | 0.85 | 0.00 | 96 | 1020.4 | |
| 20260902083240 | 67 | 0.0 | 0.0 | 0.00 | 0.85 | 0.00 | 96 | 1020.4 | |
| 20260902083115 | 67 | 0.0 | 0.0 | 0.00 | 0.85 | 0.00 | 96 | 1020.5 | |
| 20260902083047 | 67 | 0.0 | 0.0 | 0.00 | 0.85 | 0.00 | 96 | 1020.4 | |
| 20260902082922 | 67 | 0.0 | 0.0 | 0.00 | 0.85 | 0.00 | 96 | 1020.4 | |
| 20260902082818 | 67 | 81 | 0.0 | 1.0 | 0.00 | 0.85 | 0.00 | 96 | 1020.5 |
| 20260902082729 | 67 | 0.0 | 0.0 | 0.00 | 0.85 | 0.00 | 96 | 1020.6 | |
| 20260902082625 | 67 | 0.0 | 0.0 | 0.00 | 0.85 | 0.00 | 96 | 1020.5 | |
| 20260902082520 | 67 | 0.0 | 0.0 | 0.00 | 0.85 | 0.00 | 96 | 1020.4 | |
| 20260902082416 | 67 | 0.0 | 0.0 | 0.00 | 0.85 | 0.00 | 96 | 1020.5 | |
| 20260902082327 | 67 | 81 | 0.0 | 1.0 | 0.00 | 0.85 | 0.00 | 96 | 1020.4 |
| 20260902082243 | 67 | 0.0 | 0.0 | 0.00 | 0.85 | 0.00 | 96 | 1020.3 | |
| 20260902082118 | 67 | 0.0 | 0.0 | 0.00 | 0.85 | 0.00 | 96 | 1020.2 | |
| 20260902082050 | 67 | 80 | 0.0 | 1.0 | 0.00 | 0.85 | 0.00 | 96 | 1020.4 |
| 20260902082006 | 67 | 80 | 0.0 | 1.0 | 0.00 | 0.85 | 0.00 | 96 | 1020.4 |
| 20260902081821 | 67 | 0.0 | 0.0 | 0.00 | 0.85 | 0.00 | 96 | 1020.4 | |
| 20260902081717 | 67 | 82 | 0.0 | 1.0 | 0.00 | 0.85 | 0.00 | 96 | 1020.1 |
| 20260902081648 | 67 | 82 | 1.0 | 1.0 | 0.00 | 0.85 | 0.00 | 96 | 1020.4 |
| 20260902081524 | 67 | 82 | 0.0 | 1.0 | 0.00 | 0.85 | 0.00 | 96 | 1020.2 |
| 20260902081440 | 67 | 0.0 | 0.0 | 0.00 | 0.85 | 0.00 | 96 | 1020.3 | |
| 20260902081331 | 67 | 81 | 0.0 | 1.0 | 0.00 | 0.85 | 0.00 | 96 | 1020.3 |
| 20260902081227 | 67 | 81 | 0.0 | 1.0 | 0.00 | 0.85 | 0.00 | 96 | 1020.2 |
| 20260902081122 | 67 | 81 | 0.0 | 1.0 | 0.00 | 0.85 | 0.00 | 96 | 1020.2 |
| 20260902081038 | 67 | 0.0 | 0.0 | 0.00 | 0.85 | 0.00 | 96 | 1020.5 | |
| 20260902080929 | 67 | 0.0 | 0.0 | 0.00 | 0.85 | 0.00 | 96 | 1020.4 | |
| 20260902080825 | 67 | 82 | 1.0 | 2.0 | 0.00 | 0.85 | 0.00 | 96 | 1020.5 |
| 20260902080721 | 67 | 32 | 1.0 | 1.0 | 0.00 | 0.85 | 0.00 | 96 | 1020.4 |
| 20260902080616 | 67 | 0.0 | 0.0 | 0.00 | 0.85 | 0.00 | 96 | 1020.3 | |
| 20260902080527 | 67 | 350 | 0.0 | 1.0 | 0.00 | 0.85 | 0.00 | 96 | 1020.2 |
| 20260902080423 | 67 | 0.0 | 0.0 | 0.00 | 0.85 | 0.00 | 96 | 1020.3 | |
| 20260902080318 | 67 | 0.0 | 0.0 | 0.00 | 0.85 | 0.00 | 96 | 1020.3 | |
| 20260902080230 | 67 | 0.0 | 0.0 | 0.00 | 0.85 | 0.00 | 96 | 1020.1 | |
| 20260902080125 | 67 | 0.0 | 0.0 | 0.00 | 0.85 | 0.00 | 96 | 1020.2 | |
| 20260902080021 | 67 | 0.0 | 0.0 | 0.00 | 0.85 | 0.00 | 96 | 1020.2 | |
| 20260902075916 | 67 | 0.0 | 0.0 | 0.00 | 0.85 | 0.00 | 96 | 1020.1 | |
| 20260902075828 | 67 | 308 | 1.0 | 1.0 | 0.00 | 0.85 | 0.00 | 96 | 1020.3 |
| 20260902075744 | 67 | 306 | 1.0 | 1.0 | 0.00 | 0.85 | 0.00 | 96 | 1020.3 |
| 20260902075619 | 67 | 0.0 | 0.0 | 0.00 | 0.85 | 0.00 | 96 | 1020.3 | |
| 20260902075531 | 67 | 301 | 0.0 | 1.0 | 0.00 | 0.85 | 0.00 | 96 | 1020.4 |
| 20260902075427 | 67 | 0.0 | 0.0 | 0.00 | 0.85 | 0.00 | 96 | 1020.2 | |
| 20260902075322 | 67 | 0.0 | 0.0 | 0.00 | 0.85 | 0.00 | 96 | 1020.2 | |
| 20260902075217 | 67 | 0.0 | 0.0 | 0.00 | 0.85 | 0.00 | 96 | 1020.4 | |
| 20260902075129 | 67 | 0.0 | 0.0 | 0.00 | 0.85 | 0.00 | 96 | 1020.2 | |
| 20260902075045 | 67 | 0.0 | 0.0 | 0.00 | 0.85 | 0.00 | 96 | 1020.1 | |
| 20260902074921 | 67 | 0.0 | 0.0 | 0.00 | 0.85 | 0.00 | 96 | 1020.1 | |
| 20260902074815 | 67 | 0.0 | 0.0 | 0.00 | 0.85 | 0.00 | 96 | 1020.2 | |
| 20260902074747 | 67 | 0.0 | 0.0 | 0.00 | 0.85 | 0.00 | 96 | 1020.2 | |
| 20260902074622 | 67 | 0.0 | 0.0 | 0.00 | 0.85 | 0.00 | 96 | 1020.1 | |
| 20260902074518 | 67 | 0.0 | 0.0 | 0.00 | 0.85 | 0.00 | 96 | 1020.1 | |
| 20260902074430 | 67 | 0.0 | 0.0 | 0.00 | 0.85 | 0.00 | 96 | 1020.1 | |
| 20260902074325 | 67 | 0.0 | 0.0 | 0.00 | 0.85 | 0.00 | 96 | 1020.1 | |
| 20260902074240 | 67 | 0.0 | 0.0 | 0.00 | 0.85 | 0.00 | 96 | 1020.1 | |
| 20260902074136 | 67 | 0.0 | 0.0 | 0.00 | 0.85 | 0.00 | 96 | 1020.2 | |
| 20260902074027 | 67 | 0.0 | 0.0 | 0.00 | 0.85 | 0.00 | 96 | 1020.0 | |
| 20260902073923 | 67 | 0.0 | 0.0 | 0.00 | 0.85 | 0.00 | 96 | 1019.9 | |
| 20260902073819 | 67 | 0.0 | 0.0 | 0.00 | 0.85 | 0.00 | 96 | 1019.9 | |
| 20260902073730 | 67 | 0.0 | 0.0 | 0.00 | 0.85 | 0.00 | 96 | 1020.1 | |
| 20260902073626 | 67 | 0.0 | 0.0 | 0.00 | 0.85 | 0.00 | 96 | 1020.0 | |
| 20260902073521 | 67 | 301 | 0.0 | 1.0 | 0.00 | 0.85 | 0.00 | 96 | 1020.2 |
| 20260902073437 | 67 | 301 | 0.0 | 1.0 | 0.00 | 0.85 | 0.00 | 96 | 1020.3 |
| 20260902073328 | 67 | 301 | 0.0 | 1.0 | 0.00 | 0.85 | 0.00 | 96 | 1020.2 |
| 20260902073224 | 67 | 0.0 | 0.0 | 0.00 | 0.85 | 0.00 | 96 | 1020.1 | |
| 20260902073140 | 67 | 0.0 | 0.0 | 0.00 | 0.85 | 0.00 | 96 | 1020.0 | |
| 20260902073015 | 67 | 0.0 | 0.0 | 0.00 | 0.85 | 0.00 | 96 | 1020.2 | |
| 20260902072927 | 67 | 301 | 0.0 | 1.0 | 0.00 | 0.85 | 0.00 | 96 | 1019.9 |
| 20260902072842 | 67 | 301 | 0.0 | 1.0 | 0.00 | 0.85 | 0.00 | 96 | 1020.0 |
| 20260902072718 | 67 | 0.0 | 0.0 | 0.00 | 0.85 | 0.00 | 96 | 1020.1 | |
| 20260902072629 | 67 | 301 | 0.0 | 1.0 | 0.00 | 0.85 | 0.00 | 96 | 1020.0 |
| 20260902072545 | 67 | 0.0 | 0.0 | 0.00 | 0.85 | 0.00 | 96 | 1020.0 | |
| 20260902072421 | 67 | 0.0 | 0.0 | 0.00 | 0.85 | 0.00 | 96 | 1020.0 | |
| 20260902072316 | 67 | 0.0 | 0.0 | 0.00 | 0.85 | 0.00 | 96 | 1020.0 | |
| 20260902072228 | 67 | 0.0 | 0.0 | 0.00 | 0.85 | 0.00 | 96 | 1020.1 | |
| 20260902072124 | 67 | 0.0 | 0.0 | 0.00 | 0.85 | 0.00 | 96 | 1020.1 | |
| 20260902072019 | 67 | 0.0 | 0.0 | 0.00 | 0.85 | 0.00 | 96 | 1020.1 | |
| 20260902071931 | 67 | 0.0 | 0.0 | 0.00 | 0.85 | 0.00 | 96 | 1020.2 | |
| 20260902071846 | 67 | 0.0 | 0.0 | 0.00 | 0.85 | 0.00 | 96 | 1020.0 | |
| 20260902071722 | 67 | 0.0 | 0.0 | 0.00 | 0.85 | 0.00 | 96 | 1020.0 | |
| 20260902071617 | 67 | 0.0 | 0.0 | 0.00 | 0.85 | 0.00 | 96 | 1020.2 | |
| 20260902071549 | 67 | 0.0 | 0.0 | 0.00 | 0.85 | 0.00 | 96 | 1020.1 | |
| 20260902071425 | 67 | 0.0 | 0.0 | 0.00 | 0.85 | 0.00 | 96 | 1020.1 | |
| 20260902071320 | 67 | 0.0 | 0.0 | 0.00 | 0.85 | 0.00 | 96 | 1020.1 | |
| 20260902071216 | 67 | 0.0 | 0.0 | 0.00 | 0.85 | 0.00 | 96 | 1020.3 | |
| 20260902071128 | 67 | 0.0 | 0.0 | 0.00 | 0.85 | 0.00 | 96 | 1020.2 | |
| 20260902071103 | 67 | 0.0 | 0.0 | 0.00 | 0.85 | 0.00 | 96 | 1020.2 | |
| 20260902070919 | 67 | 0.0 | 0.0 | 0.00 | 0.85 | 0.00 | 96 | 1020.2 | |
| 20260902070831 | 67 | 0.0 | 0.0 | 0.00 | 0.85 | 0.00 | 96 | 1020.3 | |
| 20260902070726 | 67 | 0.0 | 0.0 | 0.00 | 0.85 | 0.00 | 96 | 1020.2 | |
| 20260902070622 | 67 | 0.0 | 0.0 | 0.00 | 0.85 | 0.00 | 96 | 1020.2 | |
| 20260902070517 | 67 | 0.0 | 0.0 | 0.00 | 0.85 | 0.00 | 96 | 1020.3 | |
| 20260902070449 | 67 | 0.0 | 0.0 | 0.00 | 0.85 | 0.00 | 96 | 1020.2 | |
| 20260902070325 | 67 | 0.0 | 0.0 | 0.00 | 0.85 | 0.00 | 96 | 1020.3 | |
| 20260902070220 | 67 | 0.0 | 0.0 | 0.00 | 0.85 | 0.00 | 96 | 1020.3 | |
| 20260902070116 | 67 | 0.0 | 0.0 | 0.00 | 0.85 | 0.00 | 96 | 1020.0 | |
| 20260902070027 | 67 | 301 | 1.0 | 1.0 | 0.00 | 0.85 | 0.00 | 96 | 1020.0 |
| 20260902065943 | 67 | 300 | 0.0 | 1.0 | 0.00 | 0.85 | 0.00 | 96 | 1020.1 |
| 20260902065818 | 67 | 300 | 1.0 | 2.0 | 0.00 | 0.85 | 0.00 | 96 | 1020.2 |
| 20260902065730 | 67 | 0.0 | 0.0 | 0.00 | 0.85 | 0.00 | 96 | 1020.0 | |
| 20260902065626 | 67 | 0.0 | 0.0 | 0.00 | 0.85 | 0.00 | 96 | 1019.9 | |
| 20260902065521 | 67 | 0.0 | 0.0 | 0.00 | 0.85 | 0.00 | 96 | 1019.9 | |
| 20260902065417 | 67 | 63 | 1.0 | 2.0 | 0.00 | 0.85 | 0.00 | 96 | 1019.9 |
| 20260902065328 | 67 | 0.0 | 0.0 | 0.00 | 0.85 | 0.00 | 96 | 1019.9 | |
| 20260902065224 | 67 | 60 | 0.0 | 1.0 | 0.00 | 0.85 | 0.00 | 96 | 1019.9 |
| 20260902065119 | 67 | 60 | 0.0 | 1.0 | 0.00 | 0.85 | 0.00 | 96 | 1020.0 |
| 20260902065015 | 67 | 0.0 | 0.0 | 0.00 | 0.85 | 0.00 | 96 | 1019.9 | |
| 20260902064927 | 67 | 60 | 0.0 | 1.0 | 0.00 | 0.85 | 0.00 | 96 | 1020.0 |
| 20260902064822 | 67 | 0.0 | 0.0 | 0.00 | 0.85 | 0.00 | 96 | 1019.8 | |
| 20260902064718 | 67 | 0.0 | 0.0 | 0.00 | 0.85 | 0.00 | 96 | 1019.9 | |
| 20260902064630 | 67 | 0.0 | 0.0 | 0.00 | 0.85 | 0.00 | 96 | 1019.8 | |
| 20260902064526 | 67 | 60 | 0.0 | 1.0 | 0.00 | 0.85 | 0.00 | 96 | 1019.8 |
| 20260902064421 | 67 | 0.0 | 0.0 | 0.00 | 0.85 | 0.00 | 96 | 1019.8 | |
| 20260902064316 | 67 | 60 | 0.0 | 1.0 | 0.00 | 0.85 | 0.00 | 96 | 1019.8 |
| 20260902064228 | 67 | 0.0 | 0.0 | 0.00 | 0.85 | 0.00 | 96 | 1019.8 | |
| 20260902064124 | 67 | 0.0 | 0.0 | 0.00 | 0.85 | 0.00 | 96 | 1019.7 | |
| 20260902064111 | 67 | 60 | 0.0 | 1.0 | 0.00 | 0.85 | 0.00 | 96 | 1019.7 |
| 20260902063827 | 67 | 60 | 0.0 | 1.0 | 0.00 | 0.85 | 0.00 | 96 | 1019.7 |
| 20260902063722 | 67 | 60 | 0.0 | 1.0 | 0.00 | 0.85 | 0.00 | 96 | 1019.7 |
| 20260902063618 | 67 | 0.0 | 0.0 | 0.00 | 0.85 | 0.00 | 96 | 1019.7 | |
| 20260902063529 | 67 | 0.0 | 0.0 | 0.00 | 0.85 | 0.00 | 96 | 1019.8 | |
| 20260902063425 | 67 | 60 | 0.0 | 1.0 | 0.00 | 0.85 | 0.00 | 96 | 1019.7 |
| 20260902063321 | 67 | 0.0 | 0.0 | 0.00 | 0.85 | 0.00 | 96 | 1019.8 | |
| 20260902063256 | 67 | 0.0 | 0.0 | 0.00 | 0.85 | 0.00 | 96 | 1019.9 | |
| 20260902063128 | 67 | 0.0 | 0.0 | 0.00 | 0.85 | 0.00 | 96 | 1019.7 | |
| 20260902063023 | 67 | 0.0 | 0.0 | 0.00 | 0.85 | 0.00 | 96 | 1019.9 | |
| 20260902062919 | 67 | 0.0 | 0.0 | 0.00 | 0.85 | 0.00 | 96 | 1019.9 | |
| 20260902062831 | 67 | 0.0 | 0.0 | 0.00 | 0.85 | 0.00 | 96 | 1019.9 | |
| 20260902062726 | 67 | 59 | 0.0 | 1.0 | 0.00 | 0.85 | 0.00 | 96 | 1019.6 |
| 20260902062621 | 67 | 65 | 1.0 | 2.0 | 0.00 | 0.85 | 0.00 | 96 | 1019.7 |
| 20260902062517 | 67 | 0.0 | 0.0 | 0.00 | 0.85 | 0.00 | 96 | 1019.9 | |
| 20260902062429 | 67 | 74 | 0.0 | 2.0 | 0.00 | 0.85 | 0.00 | 96 | 1019.6 |
| 20260902062324 | 67 | 77 | 1.0 | 2.0 | 0.00 | 0.85 | 0.00 | 96 | 1019.6 |
| 20260902062220 | 67 | 80 | 0.0 | 1.0 | 0.00 | 0.85 | 0.00 | 97 | 1019.6 |
| 20260902062115 | 67 | 80 | 0.0 | 1.0 | 0.00 | 0.85 | 0.00 | 96 | 1019.6 |
| 20260902062027 | 67 | 79 | 1.0 | 2.0 | 0.00 | 0.85 | 0.00 | 96 | 1019.6 |
| 20260902061922 | 67 | 0.0 | 0.0 | 0.00 | 0.85 | 0.00 | 96 | 1019.6 | |
| 20260902061818 | 67 | 81 | 0.0 | 1.0 | 0.00 | 0.85 | 0.00 | 96 | 1019.5 |
| 20260902061729 | 67 | 81 | 0.0 | 1.0 | 0.00 | 0.85 | 0.00 | 96 | 1019.6 |
| 20260902061625 | 67 | 81 | 1.0 | 2.0 | 0.00 | 0.85 | 0.00 | 96 | 1019.7 |
| 20260902061521 | 67 | 81 | 0.0 | 1.0 | 0.00 | 0.85 | 0.00 | 96 | 1019.7 |
| 20260902061457 | 67 | 82 | 2.0 | 3.0 | 0.00 | 0.85 | 0.00 | 96 | 1019.8 |
| 20260902061328 | 67 | 71 | 0.0 | 1.0 | 0.00 | 0.85 | 0.00 | 96 | 1019.8 |
| 20260902061223 | 67 | 71 | 0.0 | 1.0 | 0.00 | 0.85 | 0.00 | 96 | 1019.9 |
| 20260902061119 | 67 | 68 | 1.0 | 2.0 | 0.00 | 0.85 | 0.00 | 96 | 1019.9 |
| 20260902061051 | 67 | 0.0 | 0.0 | 0.00 | 0.85 | 0.00 | 96 | 1020.0 | |
| 20260902060925 | 67 | 0.0 | 0.0 | 0.00 | 0.85 | 0.00 | 96 | 1019.8 | |
| 20260902060821 | 67 | 0.0 | 0.0 | 0.00 | 0.85 | 0.00 | 96 | 1020.0 | |
| 20260902060716 | 67 | 0.0 | 0.0 | 0.00 | 0.85 | 0.00 | 96 | 1019.9 | |
| 20260902060628 | 67 | 0.0 | 0.0 | 0.00 | 0.85 | 0.00 | 96 | 1020.0 | |
| 20260902060524 | 67 | 0.0 | 0.0 | 0.00 | 0.85 | 0.00 | 96 | 1020.0 | |
| 20260902060419 | 67 | 59 | 0.0 | 1.0 | 0.00 | 0.85 | 0.00 | 96 | 1020.3 |
| 20260902060331 | 67 | 0.0 | 0.0 | 0.00 | 0.85 | 0.00 | 96 | 1020.1 | |
| 20260902060226 | 67 | 0.0 | 0.0 | 0.00 | 0.85 | 0.00 | 96 | 1019.9 | |
| 20260902060121 | 67 | 0.0 | 0.0 | 0.00 | 0.85 | 0.00 | 96 | 1020.0 | |
| 20260902060017 | 67 | 59 | 0.0 | 1.0 | 0.00 | 0.85 | 0.00 | 96 | 1020.1 |
| 20260902055928 | 67 | 0.0 | 0.0 | 0.00 | 0.85 | 0.00 | 96 | 1020.0 | |
| 20260902055844 | 67 | 0.0 | 0.0 | 0.00 | 0.85 | 0.00 | 96 | 1020.0 | |
| 20260902055739 | 67 | 59 | 0.0 | 1.0 | 0.00 | 0.85 | 0.00 | 96 | 1020.1 |
| 20260902055631 | 67 | 26 | 0.0 | 2.0 | 0.00 | 0.85 | 0.00 | 96 | 1020.0 |
| 20260902055526 | 67 | 319 | 1.0 | 1.0 | 0.00 | 0.85 | 0.00 | 96 | 1020.2 |
| 20260902055422 | 67 | 0.0 | 0.0 | 0.00 | 0.85 | 0.00 | 96 | 1020.1 | |
| 20260902055317 | 67 | 0.0 | 0.0 | 0.00 | 0.85 | 0.00 | 96 | 1020.1 | |
| 20260902055229 | 67 | 0.0 | 0.0 | 0.00 | 0.85 | 0.00 | 96 | 1020.1 | |
| 20260902055125 | 67 | 0.0 | 0.0 | 0.00 | 0.85 | 0.00 | 96 | 1020.1 | |
| 20260902055020 | 67 | 0.0 | 0.0 | 0.00 | 0.85 | 0.00 | 96 | 1020.3 | |
| 20260902054915 | 68 | 319 | 0.0 | 1.0 | 0.00 | 0.85 | 0.00 | 96 | 1020.3 |
| 20260902054827 | 68 | 318 | 0.0 | 1.0 | 0.00 | 0.85 | 0.00 | 96 | 1020.3 |
| 20260902054723 | 67 | 0.0 | 0.0 | 0.00 | 0.85 | 0.00 | 96 | 1020.4 | |
| 20260902054618 | 67 | 0.0 | 0.0 | 0.00 | 0.85 | 0.00 | 96 | 1020.4 | |
| 20260902054530 | 67 | 0.0 | 0.0 | 0.00 | 0.85 | 0.00 | 96 | 1020.2 | |
| 20260902054526 | 67 | 0.0 | 0.0 | 0.00 | 0.85 | 0.00 | 96 | 1020.3 | |
| 20260902054321 | 67 | 0.0 | 0.0 | 0.00 | 0.85 | 0.00 | 96 | 1020.3 | |
| 20260902054217 | 67 | 0.0 | 0.0 | 0.00 | 0.85 | 0.00 | 96 | 1020.5 | |
| 20260902054128 | 67 | 0.0 | 0.0 | 0.00 | 0.85 | 0.00 | 96 | 1020.3 | |
| 20260902054024 | 67 | 0.0 | 0.0 | 0.00 | 0.85 | 0.00 | 96 | 1020.3 | |
| 20260902053919 | 67 | 0.0 | 0.0 | 0.00 | 0.85 | 0.00 | 96 | 1020.4 | |
| 20260902053911 | 68 | 0.0 | 0.0 | 0.00 | 0.85 | 0.00 | 96 | 1020.5 | |
| 20260902053726 | 68 | 0.0 | 0.0 | 0.00 | 0.85 | 0.00 | 96 | 1020.3 | |
| 20260902053622 | 68 | 0.0 | 0.0 | 0.00 | 0.85 | 0.00 | 96 | 1020.3 | |
| 20260902053517 | 68 | 0.0 | 0.0 | 0.00 | 0.85 | 0.00 | 96 | 1020.3 | |
| 20260902053429 | 68 | 319 | 0.0 | 1.0 | 0.00 | 0.85 | 0.00 | 96 | 1020.2 |
| 20260902053324 | 68 | 0.0 | 0.0 | 0.00 | 0.85 | 0.00 | 96 | 1020.2 | |
| 20260902053220 | 68 | 319 | 0.0 | 1.0 | 0.00 | 0.85 | 0.00 | 96 | 1020.2 |
| 20260902053115 | 68 | 0.0 | 0.0 | 0.00 | 0.85 | 0.00 | 96 | 1020.3 | |
| 20260902053027 | 68 | 319 | 0.0 | 1.0 | 0.00 | 0.85 | 0.00 | 96 | 1020.4 |
| 20260902052923 | 68 | 319 | 0.0 | 2.0 | 0.00 | 0.85 | 0.00 | 96 | 1020.4 |
| 20260902052818 | 68 | 0.0 | 0.0 | 0.00 | 0.85 | 0.00 | 96 | 1020.4 | |
| 20260902052729 | 68 | 303 | 0.0 | 1.0 | 0.00 | 0.85 | 0.00 | 96 | 1020.2 |
| 20260902052645 | 68 | 0.0 | 0.0 | 0.00 | 0.85 | 0.00 | 96 | 1020.2 | |
| 20260902052520 | 68 | 0.0 | 0.0 | 0.00 | 0.85 | 0.00 | 96 | 1020.3 | |
| 20260902052456 | 68 | 0.0 | 0.0 | 0.00 | 0.85 | 0.00 | 96 | 1020.3 | |
| 20260902052328 | 68 | 0.0 | 0.0 | 0.00 | 0.85 | 0.00 | 96 | 1020.3 | |
| 20260902052223 | 68 | 303 | 0.0 | 1.0 | 0.00 | 0.85 | 0.00 | 96 | 1020.2 |
| 20260902052119 | 68 | 303 | 0.0 | 1.0 | 0.00 | 0.85 | 0.00 | 96 | 1020.2 |
| 20260902052031 | 68 | 305 | 2.0 | 2.0 | 0.00 | 0.85 | 0.00 | 96 | 1020.4 |
| 20260902051946 | 68 | 317 | 2.0 | 2.0 | 0.00 | 0.85 | 0.00 | 96 | 1020.2 |
| 20260902051821 | 68 | 335 | 0.0 | 1.0 | 0.00 | 0.85 | 0.00 | 96 | 1020.2 |
| 20260902051717 | 68 | 335 | 0.0 | 1.0 | 0.00 | 0.85 | 0.00 | 96 | 1020.4 |
| 20260902051629 | 68 | 335 | 0.0 | 1.0 | 0.00 | 0.85 | 0.00 | 95 | 1020.2 |
| 20260902051524 | 68 | 335 | 0.0 | 1.0 | 0.00 | 0.85 | 0.00 | 96 | 1020.1 |
| 20260902051419 | 68 | 0.0 | 0.0 | 0.00 | 0.85 | 0.00 | 96 | 1020.1 | |
| 20260902051331 | 68 | 335 | 0.0 | 1.0 | 0.00 | 0.85 | 0.00 | 96 | 1020.5 |
| 20260902051226 | 68 | 320 | 1.0 | 1.0 | 0.00 | 0.85 | 0.00 | 96 | 1020.2 |
| 20260902051122 | 68 | 296 | 0.0 | 1.0 | 0.00 | 0.85 | 0.00 | 95 | 1020.2 |
| 20260902051017 | 68 | 296 | 1.0 | 2.0 | 0.00 | 0.85 | 0.00 | 95 | 1020.3 |
| 20260902050929 | 68 | 296 | 0.0 | 2.0 | 0.00 | 0.85 | 0.00 | 95 | 1020.2 |
| 20260902050824 | 68 | 296 | 1.0 | 2.0 | 0.00 | 0.85 | 0.00 | 95 | 1020.2 |
| 20260902050719 | 68 | 0.0 | 0.0 | 0.00 | 0.85 | 0.00 | 95 | 1020.3 | |
| 20260902050631 | 68 | 0.0 | 0.0 | 0.00 | 0.85 | 0.00 | 95 | 1020.3 | |
| 20260902050526 | 68 | 0.0 | 0.0 | 0.00 | 0.85 | 0.00 | 95 | 1020.3 | |
| 20260902050422 | 68 | 294 | 0.0 | 1.0 | 0.00 | 0.85 | 0.00 | 95 | 1020.3 |
| 20260902050337 | 68 | 0.0 | 0.0 | 0.00 | 0.85 | 0.00 | 95 | 1020.3 | |
| 20260902050229 | 68 | 0.0 | 0.0 | 0.00 | 0.85 | 0.00 | 95 | 1020.2 | |
| 20260902050124 | 68 | 294 | 0.0 | 1.0 | 0.00 | 0.85 | 0.00 | 95 | 1020.1 |
| 20260902050020 | 68 | 0.0 | 0.0 | 0.00 | 0.85 | 0.00 | 95 | 1020.4 | |
| 20260902045916 | 68 | 0.0 | 0.0 | 0.00 | 0.85 | 0.00 | 96 | 1020.3 | |
| 20260902045827 | 68 | 0.0 | 0.0 | 0.00 | 0.85 | 0.00 | 96 | 1020.2 | |
| 20260902045722 | 68 | 0.0 | 0.0 | 0.00 | 0.85 | 0.00 | 96 | 1020.1 | |
| 20260902045638 | 68 | 0.0 | 0.0 | 0.00 | 0.85 | 0.00 | 96 | 1020.4 | |
| 20260902045530 | 68 | 0.0 | 0.0 | 0.00 | 0.85 | 0.00 | 96 | 1020.0 | |
| 20260902045425 | 68 | 294 | 0.0 | 1.0 | 0.00 | 0.85 | 0.00 | 96 | 1020.3 |
| 20260902045321 | 68 | 0.0 | 0.0 | 0.00 | 0.85 | 0.00 | 96 | 1020.4 | |
| 20260902045215 | 68 | 294 | 1.0 | 2.0 | 0.00 | 0.85 | 0.00 | 96 | 1020.2 |
| 20260902045127 | 68 | 0.0 | 0.0 | 0.00 | 0.85 | 0.00 | 95 | 1020.2 | |
| 20260902045023 | 68 | 0.0 | 0.0 | 0.00 | 0.85 | 0.00 | 96 | 1020.3 | |
| 20260902044938 | 68 | 0.0 | 0.0 | 0.00 | 0.85 | 0.00 | 95 | 1020.4 | |
| 20260902044830 | 68 | 0.0 | 0.0 | 0.00 | 0.85 | 0.00 | 96 | 1020.4 | |
| 20260902044726 | 68 | 308 | 0.0 | 1.0 | 0.00 | 0.85 | 0.00 | 95 | 1020.3 |
| 20260902044701 | 68 | 308 | 0.0 | 1.0 | 0.00 | 0.85 | 0.00 | 96 | 1020.3 |
| 20260902044517 | 68 | 308 | 0.0 | 1.0 | 0.00 | 0.85 | 0.00 | 96 | 1020.4 |
| 20260902044448 | 68 | 308 | 1.0 | 1.0 | 0.00 | 0.85 | 0.00 | 96 | 1020.2 |
| 20260902044323 | 68 | 308 | 1.0 | 2.0 | 0.00 | 0.85 | 0.00 | 96 | 1020.3 |
| 20260902044219 | 68 | 301 | 2.0 | 3.0 | 0.00 | 0.85 | 0.00 | 95 | 1020.4 |
| 20260902044130 | 68 | 298 | 2.0 | 2.0 | 0.00 | 0.85 | 0.00 | 95 | 1020.2 |
| 20260902044026 | 68 | 299 | 0.0 | 1.0 | 0.00 | 0.85 | 0.00 | 95 | 1020.2 |
| 20260902043921 | 68 | 0.0 | 0.0 | 0.00 | 0.85 | 0.00 | 95 | 1020.0 | |
| 20260902043837 | 68 | 0.0 | 0.0 | 0.00 | 0.85 | 0.00 | 95 | 1020.2 | |
| 20260902043728 | 68 | 0.0 | 0.0 | 0.00 | 0.85 | 0.00 | 95 | 1020.0 | |
| 20260902043624 | 68 | 298 | 0.0 | 1.0 | 0.00 | 0.85 | 0.00 | 95 | 1020.0 |
| 20260902043520 | 68 | 298 | 1.0 | 1.0 | 0.00 | 0.85 | 0.00 | 95 | 1020.0 |
| 20260902043415 | 68 | 0.0 | 0.0 | 0.00 | 0.85 | 0.00 | 95 | 1019.9 | |
| 20260902043327 | 68 | 0.0 | 0.0 | 0.00 | 0.85 | 0.00 | 95 | 1020.0 | |
| 20260902043222 | 68 | 0.0 | 0.0 | 0.00 | 0.85 | 0.00 | 95 | 1020.0 | |
| 20260902043118 | 68 | 0.0 | 0.0 | 0.00 | 0.85 | 0.00 | 95 | 1020.1 | |
| 20260902043030 | 68 | 0.0 | 0.0 | 0.00 | 0.85 | 0.00 | 95 | 1020.0 | |
| 20260902042925 | 68 | 298 | 0.0 | 1.0 | 0.00 | 0.85 | 0.00 | 95 | 1020.1 |
| 20260902042821 | 68 | 298 | 0.0 | 1.0 | 0.00 | 0.85 | 0.00 | 95 | 1020.1 |
| 20260902042716 | 68 | 298 | 0.0 | 1.0 | 0.00 | 0.85 | 0.00 | 95 | 1020.0 |
| 20260902042628 | 68 | 298 | 1.0 | 2.0 | 0.00 | 0.85 | 0.00 | 95 | 1020.2 |
| 20260902042523 | 68 | 305 | 1.0 | 1.0 | 0.00 | 0.85 | 0.00 | 95 | 1020.1 |
| 20260902042419 | 68 | 0.0 | 0.0 | 0.00 | 0.85 | 0.00 | 95 | 1020.0 | |
| 20260902042331 | 68 | 0.0 | 0.0 | 0.00 | 0.85 | 0.00 | 95 | 1020.1 | |
| 20260902042246 | 68 | 299 | 1.0 | 3.0 | 0.00 | 0.85 | 0.00 | 95 | 1020.0 |
| 20260902042142 | 68 | 310 | 2.0 | 3.0 | 0.00 | 0.85 | 0.00 | 95 | 1020.0 |
| 20260902042037 | 68 | 338 | 0.0 | 2.0 | 0.00 | 0.85 | 0.00 | 95 | 1020.1 |
| 20260902041929 | 68 | 289 | 0.0 | 1.0 | 0.00 | 0.85 | 0.00 | 95 | 1019.9 |
| 20260902041824 | 68 | 288 | 1.0 | 2.0 | 0.00 | 0.85 | 0.00 | 95 | 1019.9 |
| 20260902041720 | 68 | 287 | 1.0 | 2.0 | 0.00 | 0.85 | 0.00 | 95 | 1019.9 |
| 20260902041635 | 68 | 293 | 0.0 | 2.0 | 0.00 | 0.85 | 0.00 | 95 | 1019.9 |
| 20260902041527 | 68 | 0.0 | 0.0 | 0.00 | 0.85 | 0.00 | 95 | 1019.8 | |
| 20260902041442 | 68 | 0.0 | 0.0 | 0.00 | 0.85 | 0.00 | 95 | 1019.8 | |
| 20260902041318 | 68 | 47 | 0.0 | 1.0 | 0.00 | 0.85 | 0.00 | 95 | 1019.7 |
| 20260902041230 | 68 | 0.0 | 0.0 | 0.00 | 0.85 | 0.00 | 95 | 1019.8 | |
| 20260902041125 | 68 | 0.0 | 0.0 | 0.00 | 0.85 | 0.00 | 95 | 1019.8 | |
| 20260902041021 | 68 | 47 | 0.0 | 1.0 | 0.00 | 0.85 | 0.00 | 95 | 1019.8 |
| 20260902040916 | 68 | 47 | 0.0 | 1.0 | 0.00 | 0.85 | 0.00 | 95 | 1019.6 |
| 20260902040828 | 68 | 47 | 0.0 | 1.0 | 0.00 | 0.85 | 0.00 | 95 | 1019.7 |
| 20260902040724 | 68 | 0.0 | 0.0 | 0.00 | 0.85 | 0.00 | 95 | 1019.8 | |
| 20260902040619 | 68 | 47 | 0.0 | 1.0 | 0.00 | 0.85 | 0.00 | 95 | 1019.9 |
| 20260902040551 | 68 | 47 | 0.0 | 1.0 | 0.00 | 0.85 | 0.00 | 95 | 1019.7 |
| 20260902040426 | 68 | 47 | 0.0 | 1.0 | 0.00 | 0.85 | 0.00 | 95 | 1019.8 |
| 20260902040321 | 68 | 47 | 0.0 | 1.0 | 0.00 | 0.85 | 0.00 | 95 | 1019.8 |
| 20260902040236 | 68 | 47 | 0.0 | 1.0 | 0.00 | 0.85 | 0.00 | 94 | 1019.8 |
| 20260902040128 | 68 | 0.0 | 0.0 | 0.00 | 0.85 | 0.00 | 94 | 1019.8 | |
| 20260902040023 | 68 | 47 | 0.0 | 1.0 | 0.00 | 0.85 | 0.85 | 94 | 1019.8 |
| 20260902035919 | 68 | 47 | 1.0 | 1.0 | 0.00 | 0.85 | 0.85 | 94 | 1019.9 |
| 20260902035831 | 68 | 47 | 0.0 | 1.0 | 0.00 | 0.85 | 0.85 | 94 | 1019.8 |
| 20260902035726 | 68 | 0.0 | 0.0 | 0.00 | 0.85 | 0.85 | 94 | 1019.8 | |
| 20260902035622 | 68 | 0.0 | 0.0 | 0.00 | 0.85 | 0.85 | 94 | 1019.9 | |
| 20260902035517 | 68 | 0.0 | 0.0 | 0.00 | 0.85 | 0.85 | 94 | 1019.9 | |
| 20260902035429 | 68 | 0.0 | 0.0 | 0.00 | 0.85 | 0.85 | 94 | 1019.8 | |
| 20260902035324 | 68 | 0.0 | 0.0 | 0.00 | 0.85 | 0.85 | 94 | 1019.7 | |
| 20260902035220 | 68 | 0.0 | 0.0 | 0.00 | 0.85 | 0.85 | 94 | 1019.7 | |
| 20260902035116 | 68 | 0.0 | 0.0 | 0.00 | 0.85 | 0.85 | 94 | 1019.6 | |
| 20260902035027 | 68 | 48 | 0.0 | 1.0 | 0.00 | 0.85 | 0.85 | 94 | 1019.6 |
| 20260902034923 | 68 | 0.0 | 0.0 | 0.00 | 0.85 | 0.85 | 94 | 1019.5 | |
| 20260902034818 | 68 | 48 | 1.0 | 1.0 | 0.00 | 0.85 | 0.85 | 94 | 1019.4 |
| 20260902034750 | 68 | 48 | 1.0 | 1.0 | 0.00 | 0.85 | 0.85 | 94 | 1019.4 |
| 20260902034626 | 68 | 48 | 0.0 | 1.0 | 0.00 | 0.85 | 0.85 | 94 | 1019.5 |
| 20260902034521 | 68 | 48 | 0.0 | 1.0 | 0.00 | 0.85 | 0.85 | 94 | 1019.5 |
| 20260902034416 | 68 | 0.0 | 0.0 | 0.00 | 0.85 | 0.85 | 94 | 1019.7 | |
| 20260902034328 | 68 | 48 | 0.0 | 1.0 | 0.00 | 0.85 | 0.85 | 94 | 1019.5 |
| 20260902034224 | 68 | 0.0 | 0.0 | 0.00 | 0.85 | 0.85 | 94 | 1019.5 | |
| 20260902034119 | 68 | 48 | 0.0 | 1.0 | 0.00 | 0.85 | 0.85 | 94 | 1019.6 |
| 20260902034031 | 68 | 48 | 1.0 | 2.0 | 0.00 | 0.85 | 0.85 | 94 | 1019.7 |
| 20260902033926 | 68 | 47 | 1.0 | 2.0 | 0.00 | 0.85 | 0.85 | 94 | 1019.6 |
| 20260902033822 | 68 | 47 | 0.0 | 1.0 | 0.00 | 0.85 | 0.85 | 94 | 1019.6 |
| 20260902033717 | 68 | 47 | 0.0 | 1.0 | 0.00 | 0.85 | 0.85 | 94 | 1019.6 |
| 20260902033649 | 68 | 47 | 0.0 | 1.0 | 0.00 | 0.85 | 0.85 | 94 | 1019.5 |
| 20260902033524 | 68 | 0.0 | 0.0 | 0.00 | 0.85 | 0.85 | 94 | 1019.7 | |
| 20260902033420 | 68 | 47 | 0.0 | 1.0 | 0.00 | 0.85 | 0.85 | 94 | 1019.7 |
| 20260902033315 | 68 | 46 | 0.0 | 1.0 | 0.00 | 0.85 | 0.85 | 94 | 1019.8 |
| 20260902033227 | 68 | 47 | 1.0 | 2.0 | 0.00 | 0.85 | 0.85 | 94 | 1019.6 |
| 20260902033123 | 68 | 0.0 | 0.0 | 0.00 | 0.85 | 0.85 | 94 | 1019.7 | |
| 20260902033018 | 68 | 0.0 | 0.0 | 0.00 | 0.85 | 0.85 | 94 | 1019.8 | |
| 20260902032929 | 68 | 50 | 0.0 | 1.0 | 0.00 | 0.85 | 0.85 | 94 | 1019.5 |
| 20260902032825 | 68 | 0.0 | 0.0 | 0.00 | 0.85 | 0.85 | 94 | 1019.4 | |
| 20260902032721 | 68 | 48 | 0.0 | 1.0 | 0.00 | 0.85 | 0.85 | 94 | 1019.4 |
| 20260902032616 | 68 | 0.0 | 0.0 | 0.00 | 0.85 | 0.85 | 94 | 1019.5 | |
| 20260902032528 | 68 | 0.0 | 0.0 | 0.00 | 0.85 | 0.85 | 94 | 1019.3 | |
| 20260902032423 | 68 | 48 | 0.0 | 1.0 | 0.00 | 0.85 | 0.85 | 94 | 1019.4 |
| 20260902032339 | 68 | 48 | 1.0 | 1.0 | 0.00 | 0.85 | 0.85 | 95 | 1019.4 |
| 20260902032230 | 68 | 34 | 0.0 | 2.0 | 0.00 | 0.85 | 0.85 | 95 | 1019.5 |
| 20260902032126 | 68 | 23 | 1.0 | 2.0 | 0.00 | 0.85 | 0.85 | 94 | 1019.3 |
| 20260902032022 | 68 | 14 | 0.0 | 1.0 | 0.00 | 0.85 | 0.85 | 94 | 1019.2 |
| 20260902031917 | 68 | 14 | 0.0 | 1.0 | 0.00 | 0.85 | 0.85 | 94 | 1019.3 |
| 20260902031829 | 68 | 12 | 0.0 | 1.0 | 0.00 | 0.85 | 0.85 | 94 | 1019.2 |
| 20260902031725 | 68 | 52 | 0.0 | 1.0 | 0.00 | 0.85 | 0.85 | 94 | 1019.2 |
| 20260902031640 | 68 | 52 | 0.0 | 1.0 | 0.00 | 0.85 | 0.85 | 94 | 1019.2 |
| 20260902031515 | 68 | 53 | 1.0 | 2.0 | 0.00 | 0.85 | 0.85 | 94 | 1018.9 |
| 20260902031427 | 68 | 330 | 2.0 | 3.0 | 0.00 | 0.85 | 0.85 | 94 | 1019.0 |
| 20260902031323 | 68 | 328 | 1.0 | 3.0 | 0.00 | 0.85 | 0.85 | 94 | 1018.9 |
| 20260902031218 | 68 | 93 | 0.0 | 1.0 | 0.00 | 0.85 | 0.85 | 94 | 1018.9 |
| 20260902031130 | 68 | 93 | 0.0 | 1.0 | 0.00 | 0.85 | 0.85 | 94 | 1019.0 |
| 20260902031025 | 69 | 93 | 0.0 | 1.0 | 0.00 | 0.85 | 0.85 | 94 | 1018.8 |
| 20260902030940 | 69 | 91 | 0.0 | 1.0 | 0.00 | 0.85 | 0.85 | 94 | 1018.7 |
| 20260902030816 | 69 | 92 | 0.0 | 1.0 | 0.00 | 0.85 | 0.85 | 94 | 1018.7 |
| 20260902030728 | 69 | 92 | 0.0 | 1.0 | 0.00 | 0.85 | 0.85 | 94 | 1018.8 |
| 20260902030623 | 69 | 71 | 2.0 | 3.0 | 0.00 | 0.85 | 0.85 | 94 | 1018.9 |
| 20260902030559 | 69 | 13 | 0.0 | 1.0 | 0.00 | 0.85 | 0.85 | 94 | 1018.7 |
| 20260902030450 | 69 | 14 | 1.0 | 2.0 | 0.00 | 0.85 | 0.85 | 94 | 1018.6 |
| 20260902030325 | 69 | 6 | 1.0 | 4.0 | 0.00 | 0.85 | 0.85 | 94 | 1018.6 |
| 20260902030220 | 69 | 25 | 0.0 | 1.0 | 0.00 | 0.85 | 0.85 | 94 | 1018.6 |
| 20260902030116 | 69 | 360 | 1.0 | 2.0 | 0.00 | 0.85 | 0.85 | 94 | 1018.4 |
| 20260902030028 | 69 | 334 | 0.0 | 1.0 | 0.00 | 0.85 | 0.85 | 94 | 1018.8 |
| 20260902025923 | 69 | 335 | 0.0 | 1.0 | 0.00 | 0.85 | 0.85 | 94 | 1018.9 |
| 20260902025819 | 69 | 335 | 1.0 | 1.0 | 0.00 | 0.85 | 0.85 | 94 | 1018.7 |
| 20260902025731 | 69 | 334 | 1.0 | 2.0 | 0.00 | 0.85 | 0.85 | 94 | 1018.6 |
| 20260902025626 | 69 | 332 | 0.0 | 2.0 | 0.00 | 0.85 | 0.85 | 94 | 1018.6 |
| 20260902025541 | 69 | 27 | 1.0 | 1.0 | 0.00 | 0.85 | 0.85 | 94 | 1018.6 |
| 20260902025417 | 69 | 298 | 1.0 | 2.0 | 0.00 | 0.85 | 0.85 | 94 | 1018.6 |
| 20260902025328 | 69 | 275 | 0.0 | 1.0 | 0.00 | 0.85 | 0.85 | 94 | 1018.6 |
| 20260902025224 | 69 | 263 | 1.0 | 2.0 | 0.00 | 0.85 | 0.85 | 94 | 1018.8 |
| 20260902025120 | 69 | 65 | 0.0 | 1.0 | 0.00 | 0.85 | 0.85 | 94 | 1018.9 |
| 20260902025015 | 69 | 70 | 1.0 | 1.0 | 0.00 | 0.85 | 0.85 | 94 | 1018.8 |
| 20260902024947 | 69 | 0.0 | 0.0 | 0.00 | 0.85 | 0.85 | 94 | 1019.0 | |
| 20260902024822 | 69 | 74 | 0.0 | 1.0 | 0.00 | 0.85 | 0.85 | 94 | 1019.1 |
| 20260902024718 | 69 | 74 | 0.0 | 1.0 | 0.00 | 0.85 | 0.85 | 94 | 1019.1 |
| 20260902024629 | 69 | 75 | 1.0 | 2.0 | 0.00 | 0.85 | 0.85 | 94 | 1018.9 |
| 20260902024525 | 69 | 75 | 1.0 | 2.0 | 0.00 | 0.85 | 0.85 | 94 | 1018.9 |
| 20260902024420 | 69 | 76 | 1.0 | 1.0 | 0.00 | 0.85 | 0.85 | 94 | 1018.8 |
| 20260902024316 | 69 | 78 | 1.0 | 1.0 | 0.00 | 0.85 | 0.85 | 94 | 1018.7 |
| 20260902024227 | 69 | 77 | 1.0 | 1.0 | 0.00 | 0.85 | 0.85 | 94 | 1018.7 |
| 20260902024123 | 69 | 55 | 2.0 | 3.0 | 0.00 | 0.85 | 0.85 | 93 | 1018.9 |
| 20260902024039 | 69 | 49 | 0.0 | 1.0 | 0.00 | 0.85 | 0.85 | 93 | 1018.8 |
| 20260902023951 | 69 | 48 | 0.0 | 1.0 | 0.00 | 0.85 | 0.85 | 93 | 1018.8 |
| 20260902023826 | 69 | 54 | 1.0 | 2.0 | 0.00 | 0.85 | 0.85 | 93 | 1018.8 |
| 20260902023722 | 69 | 52 | 0.0 | 1.0 | 0.00 | 0.85 | 0.85 | 93 | 1018.8 |
| 20260902023637 | 69 | 51 | 0.0 | 1.0 | 0.00 | 0.85 | 0.85 | 93 | 1018.8 |
| 20260902023529 | 69 | 51 | 0.0 | 1.0 | 0.00 | 0.85 | 0.85 | 93 | 1018.9 |
| 20260902023424 | 69 | 51 | 0.0 | 1.0 | 0.00 | 0.85 | 0.85 | 93 | 1018.7 |
| 20260902023320 | 69 | 51 | 0.0 | 1.0 | 0.00 | 0.85 | 0.85 | 93 | 1018.6 |
| 20260902023216 | 69 | 51 | 0.0 | 1.0 | 0.00 | 0.85 | 0.85 | 93 | 1018.8 |
| 20260902023147 | 69 | 62 | 0.0 | 2.0 | 0.00 | 0.85 | 0.85 | 93 | 1018.7 |
| 20260902023023 | 69 | 114 | 1.0 | 1.0 | 0.00 | 0.85 | 0.85 | 93 | 1018.7 |
| 20260902022938 | 69 | 114 | 1.0 | 1.0 | 0.00 | 0.85 | 0.85 | 93 | 1018.7 |
| 20260902022830 | 69 | 114 | 1.0 | 2.0 | 0.00 | 0.85 | 0.85 | 93 | 1018.7 |
| 20260902022726 | 69 | 108 | 1.0 | 2.0 | 0.00 | 0.85 | 0.85 | 93 | 1018.7 |
| 20260902022621 | 69 | 99 | 0.0 | 1.0 | 0.00 | 0.85 | 0.85 | 93 | 1018.8 |
| 20260902022517 | 70 | 99 | 1.0 | 2.0 | 0.00 | 0.85 | 0.85 | 93 | 1018.5 |
| 20260902022428 | 70 | 130 | 1.0 | 2.0 | 0.00 | 0.85 | 0.85 | 93 | 1018.5 |
| 20260902022324 | 70 | 109 | 1.0 | 3.0 | 0.00 | 0.85 | 0.85 | 93 | 1018.6 |
| 20260902022219 | 70 | 265 | 1.0 | 1.0 | 0.00 | 0.85 | 0.85 | 93 | 1018.6 |
| 20260902022131 | 70 | 266 | 0.0 | 1.0 | 0.00 | 0.85 | 0.85 | 93 | 1018.4 |
| 20260902022027 | 70 | 272 | 1.0 | 3.0 | 0.00 | 0.85 | 0.85 | 92 | 1018.7 |
| 20260902021922 | 70 | 90 | 2.0 | 4.0 | 0.00 | 0.85 | 0.85 | 92 | 1018.5 |
| 20260902021818 | 70 | 101 | 0.0 | 2.0 | 0.00 | 0.85 | 0.85 | 93 | 1018.5 |
| 20260902021729 | 70 | 108 | 1.0 | 2.0 | 0.00 | 0.85 | 0.85 | 93 | 1018.3 |
| 20260902021625 | 70 | 101 | 2.0 | 3.0 | 0.00 | 0.85 | 0.85 | 93 | 1018.4 |
| 20260902021520 | 70 | 107 | 1.0 | 3.0 | 0.00 | 0.85 | 0.85 | 92 | 1018.4 |
| 20260902021416 | 70 | 30 | 0.0 | 1.0 | 0.00 | 0.85 | 0.85 | 92 | 1018.3 |
| 20260902021328 | 70 | 30 | 1.0 | 1.0 | 0.00 | 0.85 | 0.85 | 92 | 1018.3 |
| 20260902021243 | 70 | 38 | 0.0 | 1.0 | 0.00 | 0.85 | 0.85 | 92 | 1018.4 |
| 20260902021119 | 70 | 38 | 1.0 | 2.0 | 0.00 | 0.85 | 0.85 | 92 | 1018.4 |
| 20260902021030 | 70 | 45 | 0.0 | 1.0 | 0.00 | 0.85 | 0.85 | 92 | 1018.3 |
| 20260902020926 | 70 | 45 | 1.0 | 1.0 | 0.00 | 0.85 | 0.85 | 92 | 1018.3 |
| 20260902020821 | 70 | 45 | 1.0 | 2.0 | 0.00 | 0.85 | 0.85 | 92 | 1018.2 |
| 20260902020737 | 70 | 103 | 2.0 | 3.0 | 0.00 | 0.85 | 0.85 | 92 | 1018.1 |
| 20260902020628 | 71 | 67 | 1.0 | 4.0 | 0.00 | 0.85 | 0.85 | 92 | 1018.2 |
| 20260902020524 | 71 | 63 | 1.0 | 1.0 | 0.00 | 0.85 | 0.85 | 92 | 1018.2 |
| 20260902020420 | 71 | 64 | 1.0 | 2.0 | 0.00 | 0.85 | 0.85 | 92 | 1018.0 |
| 20260902020315 | 71 | 65 | 1.0 | 3.0 | 0.00 | 0.85 | 0.85 | 92 | 1017.9 |
| 20260902020227 | 71 | 85 | 3.0 | 4.0 | 0.00 | 0.85 | 0.85 | 93 | 1018.0 |
| 20260902020142 | 71 | 76 | 1.0 | 2.0 | 0.00 | 0.85 | 0.85 | 93 | 1017.9 |
| 20260902020038 | 71 | 89 | 1.0 | 1.0 | 0.00 | 0.85 | 0.85 | 93 | 1017.8 |
| 20260902015929 | 71 | 92 | 1.0 | 2.0 | 0.00 | 0.85 | 0.85 | 93 | 1017.9 |
| 20260902015825 | 71 | 49 | 1.0 | 3.0 | 0.00 | 0.85 | 0.85 | 93 | 1017.9 |
| 20260902015721 | 71 | 116 | 1.0 | 4.0 | 0.00 | 0.85 | 0.85 | 93 | 1017.9 |
| 20260902015616 | 71 | 70 | 0.0 | 1.0 | 0.00 | 0.85 | 0.85 | 93 | 1017.7 |
| 20260902015528 | 71 | 69 | 0.0 | 1.0 | 0.00 | 0.85 | 0.85 | 93 | 1017.9 |
| 20260902015443 | 71 | 70 | 1.0 | 2.0 | 0.00 | 0.85 | 0.85 | 93 | 1017.8 |
| 20260902015359 | 71 | 70 | 1.0 | 2.0 | 0.00 | 0.85 | 0.85 | 93 | 1017.8 |
| 20260902015230 | 71 | 67 | 1.0 | 1.0 | 0.00 | 0.85 | 0.85 | 93 | 1017.8 |
| 20260902014926 | 71 | 68 | 1.0 | 1.0 | 0.00 | 0.85 | 0.85 | 93 | 1017.8 |
| 20260902014822 | 72 | 68 | 1.0 | 2.0 | 0.00 | 0.85 | 0.85 | 93 | 1018.0 |
| 20260902014717 | 72 | 63 | 1.0 | 2.0 | 0.00 | 0.85 | 0.85 | 93 | 1017.8 |
| 20260902014629 | 72 | 64 | 1.0 | 2.0 | 0.00 | 0.85 | 0.85 | 93 | 1017.6 |
| 20260902014545 | 72 | 8 | 1.0 | 1.0 | 0.00 | 0.85 | 0.85 | 93 | 1017.6 |
| 20260902014420 | 72 | 4 | 1.0 | 2.0 | 0.00 | 0.85 | 0.85 | 93 | 1017.5 |
| 20260902014315 | 72 | 43 | 2.0 | 3.0 | 0.00 | 0.85 | 0.85 | 94 | 1017.5 |
| 20260902014227 | 72 | 81 | 1.0 | 1.0 | 0.00 | 0.85 | 0.85 | 94 | 1017.5 |
| 20260902014123 | 72 | 79 | 1.0 | 2.0 | 0.00 | 0.85 | 0.85 | 94 | 1017.4 |
| 20260902014018 | 72 | 72 | 1.0 | 2.0 | 0.00 | 0.85 | 0.85 | 94 | 1017.4 |
| 20260902013930 | 72 | 55 | 1.0 | 3.0 | 0.00 | 0.85 | 0.85 | 94 | 1017.5 |
| 20260902013846 | 72 | 13 | 1.0 | 2.0 | 0.00 | 0.85 | 0.85 | 94 | 1017.3 |
| 20260902013721 | 72 | 311 | 1.0 | 1.0 | 0.00 | 0.85 | 0.85 | 94 | 1017.3 |
| 20260902013617 | 72 | 312 | 1.0 | 1.0 | 0.00 | 0.85 | 0.85 | 94 | 1017.3 |
| 20260902013528 | 72 | 307 | 1.0 | 3.0 | 0.00 | 0.85 | 0.85 | 94 | 1017.3 |
| 20260902013424 | 72 | 56 | 0.0 | 1.0 | 0.00 | 0.85 | 0.85 | 94 | 1017.1 |
| 20260902013340 | 72 | 56 | 0.0 | 1.0 | 0.00 | 0.85 | 0.85 | 94 | 1017.1 |
| 20260902013215 | 72 | 47 | 1.0 | 2.0 | 0.00 | 0.85 | 0.85 | 94 | 1017.2 |
| 20260902013146 | 72 | 39 | 1.0 | 3.0 | 0.00 | 0.85 | 0.85 | 94 | 1017.4 |
| 20260902013021 | 72 | 90 | 0.0 | 1.0 | 0.00 | 0.85 | 0.85 | 94 | 1017.4 |
| 20260902012916 | 72 | 89 | 0.0 | 1.0 | 0.00 | 0.85 | 0.85 | 95 | 1017.3 |
| 20260902012828 | 72 | 89 | 0.0 | 1.0 | 0.00 | 0.85 | 0.85 | 95 | 1017.4 |
| 20260902012724 | 72 | 90 | 1.0 | 3.0 | 0.00 | 0.85 | 0.85 | 95 | 1017.4 |
| 20260902012620 | 72 | 91 | 1.0 | 1.0 | 0.00 | 0.85 | 0.85 | 95 | 1017.3 |
| 20260902012535 | 72 | 116 | 0.0 | 2.0 | 0.00 | 0.85 | 0.85 | 95 | 1017.2 |
| 20260902012427 | 72 | 0.0 | 0.0 | 0.00 | 0.85 | 0.85 | 95 | 1017.2 | |
| 20260902012323 | 72 | 116 | 0.0 | 1.0 | 0.00 | 0.85 | 0.85 | 95 | 1017.1 |
| 20260902012218 | 72 | 0.0 | 0.0 | 0.00 | 0.85 | 0.85 | 95 | 1017.1 | |
| 20260902012130 | 72 | 116 | 0.0 | 1.0 | 0.00 | 0.85 | 0.85 | 95 | 1017.1 |
| 20260902012025 | 72 | 116 | 0.0 | 1.0 | 0.00 | 0.85 | 0.85 | 95 | 1017.1 |
| 20260902011921 | 72 | 0.0 | 0.0 | 0.00 | 0.85 | 0.85 | 95 | 1017.1 | |
| 20260902011836 | 72 | 115 | 1.0 | 2.0 | 0.00 | 0.85 | 0.85 | 95 | 1017.0 |
| 20260902011728 | 72 | 93 | 0.0 | 1.0 | 0.00 | 0.85 | 0.85 | 95 | 1017.0 |
| 20260902011643 | 72 | 0.0 | 0.0 | 0.00 | 0.85 | 0.85 | 95 | 1016.9 | |
| 20260902011519 | 72 | 93 | 0.0 | 1.0 | 0.00 | 0.85 | 0.85 | 95 | 1016.9 |
| 20260902011430 | 72 | 101 | 2.0 | 3.0 | 0.00 | 0.85 | 0.85 | 95 | 1016.7 |
| 20260902011326 | 72 | 168 | 1.0 | 2.0 | 0.00 | 0.85 | 0.85 | 94 | 1016.9 |
| 20260902011222 | 72 | 179 | 1.0 | 1.0 | 0.00 | 0.85 | 0.85 | 93 | 1016.7 |
| 20260902011137 | 72 | 179 | 1.0 | 1.0 | 0.00 | 0.85 | 0.85 | 93 | 1017.0 |
| 20260902011029 | 72 | 0.0 | 0.0 | 0.00 | 0.85 | 0.85 | 93 | 1017.0 | |
| 20260902010925 | 72 | 0.0 | 0.0 | 0.00 | 0.85 | 0.85 | 92 | 1017.0 | |
| 20260902010820 | 71 | 0.0 | 0.0 | 0.00 | 0.85 | 0.85 | 92 | 1017.0 | |
| 20260902010716 | 72 | 0.0 | 0.0 | 0.00 | 0.85 | 0.85 | 92 | 1016.9 | |
| 20260902010628 | 72 | 0.0 | 0.0 | 0.00 | 0.85 | 0.85 | 92 | 1017.1 | |
| 20260902010523 | 72 | 0.0 | 0.0 | 0.00 | 0.85 | 0.85 | 93 | 1017.0 | |
| 20260902010419 | 72 | 0.0 | 0.0 | 0.00 | 0.85 | 0.85 | 93 | 1016.9 | |
| 20260902010330 | 72 | 0.0 | 0.0 | 0.00 | 0.85 | 0.85 | 93 | 1017.0 | |
| 20260902010246 | 71 | 0.0 | 0.0 | 0.00 | 0.85 | 0.85 | 93 | 1017.1 | |
| 20260902010121 | 71 | 0.0 | 0.0 | 0.00 | 0.85 | 0.85 | 93 | 1016.8 | |
| 20260902010017 | 71 | 180 | 0.0 | 1.0 | 0.00 | 0.85 | 0.85 | 93 | 1017.0 |
| 20260902005949 | 71 | 180 | 1.0 | 1.0 | 0.00 | 0.85 | 0.85 | 93 | 1017.0 |
| 20260902005824 | 71 | 180 | 1.0 | 1.0 | 0.00 | 0.85 | 0.85 | 93 | 1016.8 |
| 20260902005740 | 71 | 180 | 1.0 | 1.0 | 0.00 | 0.85 | 0.85 | 92 | 1016.8 |
| 20260902005615 | 71 | 0.0 | 0.0 | 0.00 | 0.85 | 0.85 | 92 | 1016.7 | |
| 20260902005527 | 71 | 0.0 | 0.0 | 0.00 | 0.85 | 0.85 | 93 | 1016.6 | |
| 20260902005423 | 71 | 0.0 | 0.0 | 0.00 | 0.85 | 0.85 | 93 | 1016.3 | |
| 20260902005338 | 71 | 0.0 | 0.0 | 0.00 | 0.85 | 0.85 | 93 | 1016.2 | |
| 20260902005229 | 71 | 0.0 | 0.0 | 0.00 | 0.85 | 0.85 | 93 | 1016.3 | |
| 20260902005125 | 71 | 179 | 1.0 | 1.0 | 0.00 | 0.85 | 0.85 | 93 | 1016.3 |
| 20260902005041 | 71 | 179 | 1.0 | 1.0 | 0.00 | 0.85 | 0.85 | 93 | 1016.5 |
| 20260902004956 | 71 | 179 | 0.0 | 1.0 | 0.01 | 0.85 | 0.85 | 93 | 1016.5 |
| 20260902004828 | 71 | 179 | 1.0 | 1.0 | 0.01 | 0.85 | 0.85 | 93 | 1016.7 |
| 20260902004723 | 71 | 179 | 1.0 | 1.0 | 0.01 | 0.85 | 0.85 | 94 | 1016.6 |
| 20260902004619 | 72 | 179 | 1.0 | 2.0 | 0.02 | 0.85 | 0.85 | 93 | 1016.9 |
| 20260902004531 | 72 | 180 | 2.0 | 2.0 | 0.04 | 0.85 | 0.85 | 93 | 1016.6 |
| 20260902004426 | 71 | 188 | 2.0 | 2.0 | 0.05 | 0.85 | 0.85 | 92 | 1016.7 |
| 20260902004322 | 71 | 199 | 1.0 | 1.0 | 0.06 | 0.85 | 0.85 | 92 | 1016.8 |
| 20260902004217 | 71 | 200 | 1.0 | 1.0 | 0.06 | 0.85 | 0.85 | 93 | 1016.7 |
| 20260902004149 | 71 | 201 | 0.0 | 1.0 | 0.07 | 0.85 | 0.85 | 93 | 1016.6 |
| 20260902004024 | 71 | 203 | 1.0 | 2.0 | 0.07 | 0.85 | 0.85 | 92 | 1016.8 |
| 20260902003920 | 71 | 0.0 | 0.0 | 0.08 | 0.85 | 0.85 | 92 | 1016.5 | |
| 20260902003815 | 71 | 224 | 0.0 | 1.0 | 0.10 | 0.85 | 0.85 | 92 | 1016.5 |
| 20260902003727 | 72 | 223 | 0.0 | 1.0 | 0.12 | 0.85 | 0.85 | 92 | 1016.5 |